GFSWCAN_850_spd_105.txt.gz
Wind_Speed
32 33 34 33 29 30 24 19 20 23 23 23 25 19 16 15 16 17 19 17 18 7 20 19 16 9 8 7 2 7 9 5 4 4 2 3 2 3 2 2 6 3 3 3 3 2 7 4 5 1 3 4 14 9
31 31 30 32 35 34 29 24 18 20 23 23 24 21 18 16 18 17 19 17 17 18 12 12 14 15 18 21 13 5 4 3 2 2 3 3 3 2 1 3 2 2 5 2 7 6 5 4 2 0 5 7 9 13
32 32 31 30 28 24 29 26 19 19 23 25 22 20 18 17 18 19 18 14 15 16 25 29 29 18 22 29 19 6 6 5 4 1 2 2 4 2 2 3 2 4 6 4 3 3 1 5 7 5 9 17 16 12
35 31 28 29 30 28 32 29 22 18 22 26 22 20 18 18 19 19 19 17 17 7 5 9 8 16 14 15 21 32 33 13 8 5 3 3 2 4 3 6 3 5 6 4 3 4 8 9 13 8 16 12 14 12
36 31 27 27 33 35 33 30 23 21 21 27 23 19 18 18 18 17 19 20 20 17 3 8 19 15 9 14 20 19 27 23 14 4 3 3 3 3 3 3 2 4 4 2 1 6 7 6 12 12 14 10 11 10
27 26 25 27 30 33 28 27 25 20 23 26 22 20 19 18 17 16 11 24 26 24 6 3 7 7 3 2 17 18 20 19 13 4 4 4 4 1 3 2 5 14 6 13 6 1 9 18 19 15 14 11 11 9
29 26 25 25 29 31 32 30 25 21 25 23 22 21 20 22 22 26 7 4 10 29 6 3 5 5 11 18 16 19 17 14 16 7 5 3 4 4 2 3 11 15 12 13 16 5 12 21 13 12 11 9 6 7
29 27 29 26 24 26 28 28 25 24 25 23 22 22 22 20 21 24 31 12 11 26 7 3 4 5 6 5 6 10 12 12 8 9 2 3 3 3 3 0 8 9 8 15 14 13 11 8 9 10 9 7 6 5
28 28 28 29 28 26 25 24 24 25 26 25 21 19 15 16 16 27 22 18 22 9 5 3 3 3 2 2 4 3 7 2 6 3 4 3 3 4 5 7 9 11 9 11 5 8 12 13 13 13 13 10 8 6
29 29 31 34 30 28 26 26 28 28 23 19 18 12 7 11 10 12 9 10 9 7 6 4 7 2 7 5 5 3 6 3 3 5 9 3 2 10 9 8 7 8 10 12 12 11 14 13 14 13 10 8 7 5
29 27 26 26 27 28 28 29 28 27 24 26 11 6 13 21 13 8 5 6 7 3 7 8 20 4 10 3 3 4 3 3 3 4 5 4 2 3 6 7 7 7 8 9 5 6 8 9 10 9 8 6 6 6
27 27 28 30 31 31 31 28 26 22 23 23 17 28 20 8 5 3 3 4 4 5 6 5 8 15 7 6 4 5 4 4 4 8 3 2 2 6 5 7 8 8 7 7 8 8 8 9 9 6 6 4 5 5
30 29 28 28 28 26 24 29 21 36 34 33 15 6 6 3 3 6 6 3 4 4 6 7 3 10 7 7 3 2 3 3 7 2 1 2 7 4 5 7 8 6 5 7 9 10 10 9 8 7 6 5 5 5
28 26 25 26 26 27 29 35 39 41 30 6 6 6 3 3 4 3 1 2 3 3 2 9 5 3 4 3 1 1 2 1 1 3 2 2 5 4 5 7 9 10 9 10 11 11 10 10 9 8 6 6 5 5
30 28 27 25 29 30 35 38 41 29 6 5 4 3 2 4 4 1 2 2 2 0 2 5 4 3 1 2 1 1 1 2 2 1 1 4 3 3 5 8 9 10 11 11 11 11 11 11 10 9 8 6 5 4
35 31 30 31 29 37 41 36 26 18 6 4 6 3 4 4 3 5 6 3 3 2 3 2 2 2 1 0 3 2 0 1 1 2 5 3 4 4 6 7 9 9 8 10 10 11 11 11 11 11 8 7 6 6
35 34 38 39 51 52 39 33 18 8 5 4 4 10 9 9 6 4 5 9 5 3 2 2 2 2 2 3 2 3 1 1 10 8 4 4 5 4 6 7 7 7 7 8 9 10 10 9 9 7 7 8 7 6
47 44 46 49 51 38 27 13 7 6 6 8 5 6 15 9 4 9 8 9 2 3 3 3 3 4 3 2 1 2 6 9 7 6 5 5 4 4 4 6 5 4 4 5 7 8 9 8 6 6 6 6 5 5
53 52 49 39 32 25 7 6 6 6 6 8 11 11 11 10 14 9 7 9 12 10 9 5 5 2 1 2 2 5 6 2 6 6 5 4 4 4 6 7 6 4 3 3 5 5 5 7 7 6 4 3 2 3
42 34 33 27 22 8 6 6 6 7 4 4 6 8 6 5 6 14 15 14 13 7 7 4 2 2 3 6 6 5 3 1 10 8 4 2 2 3 4 5 6 5 4 3 3 4 4 5 5 4 3 3 2 3
33 22 18 12 16 10 6 5 6 6 8 7 9 4 6 14 10 11 11 11 10 6 4 6 10 8 6 5 6 5 6 3 2 1 3 2 0 2 2 4 5 5 4 2 2 2 3 4 4 4 3 3 4 5
24 18 19 10 7 6 7 6 10 9 5 8 6 5 5 3 5 10 6 13 6 7 4 7 6 6 6 7 7 6 5 4 3 4 5 2 2 2 1 2 4 4 5 5 4 3 3 4 4 4 3 5 5 6
16 9 7 5 5 5 5 4 4 4 3 3 4 3 3 3 3 5 5 6 4 5 7 8 6 6 8 8 6 6 5 4 4 4 4 3 3 2 2 2 4 5 5 5 5 5 4 4 4 4 4 5 5 6
6 5 5 4 5 3 6 3 4 5 5 3 2 2 2 4 4 5 3 3 4 8 10 7 6 5 3 3 5 5 5 4 4 4 5 4 3 4 3 4 4 5 5 4 4 4 3 3 2 2 3 3 3 3
4 8 5 4 4 5 4 3 3 4 3 2 3 1 2 3 3 3 2 3 6 8 7 5 0 2 3 4 5 5 5 3 4 3 5 5 6 5 5 5 5 5 5 4 4 3 3 3 3 3 3 3 2 2
6 7 4 1 1 4 2 3 2 4 3 3 1 3 3 3 4 1 2 10 9 7 4 3 5 3 6 4 2 1 3 3 2 3 4 2 1 3 4 3 3 4 3 4 4 3 3 2 1 1 0 1 1 1
4 1 4 5 5 8 5 7 6 5 3 3 1 3 3 4 2 2 8 8 7 7 5 3 3 3 4 4 4 5 6 6 4 4 3 1 1 2 2 2 2 3 4 4 4 2 2 3 3 3 3 3 2 2
4 4 4 5 8 7 5 3 3 2 2 3 5 3 5 7 3 7 7 9 7 8 7 5 3 2 1 1 2 2 1 1 2 4 4 4 3 2 2 2 3 4 3 3 3 3 1 1 1 2 3 3 3 3
5 5 6 6 6 7 7 2 2 2 2 3 4 3 4 4 8 13 16 12 10 8 6 5 4 4 5 5 3 1 3 4 5 5 6 6 6 5 4 3 4 5 5 4 3 2 0 2 3 2 2 1 1 2
4 4 6 5 4 3 6 3 5 7 8 10 10 19 21 20 17 13 12 10 7 4 2 1 1 3 4 4 4 3 1 2 3 5 8 8 7 7 7 7 7 7 6 4 3 4 3 3 3 3 3 3 3 4
5 5 6 6 6 11 19 19 19 18 16 17 20 19 15 11 12 10 10 8 5 3 2 2 2 3 3 3 4 4 3 2 2 3 4 4 5 5 5 5 6 7 6 5 4 3 4 4 3 3 2 2 3 4
4 4 7 4 5 18 8 5 7 9 7 6 5 5 9 5 6 11 10 8 6 4 3 3 2 1 1 1 2 2 3 3 3 4 4 5 5 5 5 5 5 5 5 4 4 4 5 5 5 4 4 4 4 4
13 20 17 9 7 7 6 6 5 4 4 3 4 6 2 5 5 10 11 10 7 4 3 3 3 2 1 1 2 2 2 3 4 5 4 4 4 4 4 4 3 3 2 3 3 2 3 5 6 7 7 8 7 7

GFSWCAN_850_spd_108.txt.gz
Wind_Speed
33 36 32 30 34 36 31 25 21 19 21 19 21 23 19 17 18 18 18 18 22 8 22 16 10 10 7 4 2 7 9 3 5 5 3 3 3 4 4 3 2 1 0 2 1 2 6 2 5 2 3 1 12 7
29 35 35 33 31 32 30 24 23 18 20 23 20 24 21 17 17 18 18 16 18 17 13 12 14 21 26 29 20 6 6 2 3 2 2 2 2 2 6 2 2 1 3 3 5 4 4 4 5 8 12 1 11 18
35 32 33 30 29 30 28 26 25 21 18 20 21 22 23 18 17 19 18 16 18 21 22 26 29 16 21 30 29 8 7 6 3 3 2 2 4 1 3 3 4 3 4 3 2 2 4 13 7 5 5 19 18 18
35 31 38 31 30 30 32 31 29 24 18 18 21 22 21 19 18 18 19 18 16 6 4 9 10 16 13 10 17 26 29 7 3 6 3 2 3 3 3 4 6 4 7 6 3 4 2 14 14 9 17 21 19 17
37 33 32 29 28 28 26 26 30 25 19 14 22 22 19 19 16 17 17 18 18 13 3 10 27 20 12 11 16 20 26 28 18 5 4 2 4 3 3 3 2 5 5 3 2 10 4 12 14 9 16 19 11 14
31 33 36 29 28 27 27 25 26 27 21 15 22 23 17 16 16 14 8 22 24 21 6 3 7 12 8 5 9 20 18 18 13 7 5 4 7 3 3 3 10 11 12 16 4 12 16 9 18 15 17 17 12 12
32 35 33 28 26 25 26 29 29 30 20 15 22 24 19 18 20 20 7 3 11 27 5 3 5 4 4 11 8 13 14 10 10 6 5 3 10 8 2 3 7 9 11 16 21 10 13 23 12 17 16 12 8 10
25 32 34 31 25 24 25 25 24 21 17 15 21 22 19 19 20 27 29 8 6 23 6 2 4 5 6 5 6 10 9 11 7 5 3 3 3 3 3 3 7 9 7 14 13 15 12 11 14 17 13 10 7 7
28 29 27 24 22 21 25 26 25 22 16 19 21 18 17 18 18 24 23 23 23 13 4 4 2 3 3 4 5 7 9 3 7 3 3 5 3 4 3 6 9 11 9 13 6 9 13 14 13 13 13 10 8 6
29 28 27 25 23 23 23 23 23 21 21 21 19 9 9 11 15 13 8 10 11 11 8 4 5 2 6 6 3 3 6 3 3 5 7 3 3 8 7 6 6 10 10 13 14 15 18 14 13 12 10 8 6 6
30 28 27 26 26 24 21 20 22 25 22 22 12 6 10 22 13 9 7 7 7 2 7 7 16 4 7 2 2 7 1 3 2 3 4 3 2 3 5 7 8 9 10 11 9 9 11 12 12 10 8 6 6 7
28 28 27 28 29 28 24 28 26 26 17 16 9 17 21 7 5 3 4 5 4 4 6 4 6 12 4 6 4 5 3 3 4 8 3 2 2 5 5 7 8 8 9 10 10 11 11 11 11 10 11 10 8 6
27 28 26 26 26 28 33 30 31 26 19 21 7 7 6 4 4 6 5 3 4 4 7 7 3 6 7 6 5 3 4 4 11 2 2 2 6 5 7 8 9 8 8 8 9 9 10 10 10 10 8 8 8 7
28 29 29 28 29 30 32 29 27 25 22 9 7 6 4 4 4 3 1 2 3 4 7 10 4 4 5 4 2 2 2 2 2 3 2 1 5 4 5 7 9 11 11 11 10 10 10 9 9 8 7 7 6 5
30 29 28 27 28 28 28 28 27 32 8 4 4 4 3 3 3 4 3 5 3 3 4 4 2 4 2 1 1 2 2 2 2 2 1 5 4 3 4 5 6 6 7 8 9 9 8 9 8 8 7 7 7 6
29 25 27 27 27 26 25 35 33 11 5 4 6 3 4 4 3 4 5 3 2 2 3 4 2 2 1 1 2 2 1 1 1 2 6 4 3 2 3 3 4 5 5 8 10 10 10 10 11 11 9 8 8 7
38 13 32 31 37 48 43 35 14 7 5 4 4 9 9 9 6 4 4 6 3 2 1 1 2 1 1 3 2 3 1 1 8 7 5 4 5 4 5 5 5 5 6 8 12 12 12 12 11 8 9 10 9 8
26 34 39 50 52 39 31 10 7 6 6 6 5 5 13 8 4 7 6 8 2 2 3 3 2 4 2 3 1 1 4 7 6 5 5 5 6 6 8 8 7 6 6 6 10 10 10 10 9 10 10 9 7 7
40 42 47 48 35 27 6 6 6 5 6 7 10 10 10 9 13 8 6 8 10 9 7 5 5 2 1 2 1 5 5 2 3 4 3 4 4 6 7 9 9 7 7 7 7 8 9 9 9 8 7 7 6 6
49 51 34 30 22 7 6 6 6 7 4 4 6 6 6 6 6 12 13 11 10 6 8 4 2 2 3 6 6 5 3 2 5 5 2 0 2 4 5 7 8 7 7 6 6 6 7 7 6 7 7 7 7 7
37 29 25 19 14 10 7 5 6 6 7 7 8 4 6 9 7 9 10 10 9 6 4 5 8 8 6 6 5 4 6 2 0 2 2 1 1 2 4 6 8 7 6 5 5 5 6 7 7 7 7 7 7 7
25 22 18 13 8 6 7 7 9 8 5 8 5 4 5 3 4 7 5 11 5 6 4 7 7 5 6 7 6 5 6 4 3 4 4 1 1 1 4 6 7 6 6 6 6 6 5 6 6 6 6 6 6 6
18 9 6 5 5 5 5 4 4 4 3 4 4 3 3 3 3 4 5 5 4 5 7 7 7 7 8 8 6 5 5 5 5 5 4 4 3 3 3 3 5 6 6 7 6 6 6 6 5 6 6 6 6 6
10 4 4 4 5 3 5 3 4 5 5 3 2 3 2 3 3 5 3 2 4 10 9 8 6 4 4 3 4 5 5 6 6 5 5 5 4 5 5 5 5 5 6 6 5 6 6 5 4 4 4 4 4 4
3 6 4 4 4 4 4 3 3 3 2 1 3 1 1 3 3 2 2 3 8 9 6 3 1 1 4 5 5 5 4 5 6 3 5 6 7 6 5 5 5 5 5 5 5 6 6 5 5 4 3 4 4 3
6 7 4 1 1 4 3 3 2 4 3 2 1 3 3 3 3 1 2 11 12 9 7 5 5 5 6 5 3 2 2 2 4 3 3 1 2 3 4 4 3 4 4 4 4 4 3 3 3 3 3 2 2 2
4 1 4 4 5 7 5 6 5 4 3 3 2 2 3 3 2 3 9 10 10 10 7 5 5 4 5 5 5 5 7 6 5 4 4 3 4 4 3 3 3 5 5 5 4 3 2 1 2 2 1 1 1 0
4 3 4 3 7 7 4 3 3 2 2 4 5 3 5 6 4 7 7 10 9 9 7 5 4 4 3 2 1 1 2 2 3 5 5 5 6 5 5 4 4 4 5 5 4 3 2 1 0 1 2 2 2 2
4 5 5 5 6 6 6 2 2 2 3 3 4 3 4 4 8 11 14 10 9 8 8 6 6 5 5 5 4 2 1 2 3 4 5 6 7 7 5 5 5 6 6 5 3 3 3 1 0 1 0 1 1 1
3 3 6 5 4 3 5 2 4 7 8 9 9 11 14 13 16 15 14 14 11 8 5 4 2 3 3 4 4 4 2 1 2 5 6 7 7 7 7 5 5 5 5 5 3 1 2 2 2 2 3 3 2 3
5 5 6 5 5 8 17 18 16 14 10 13 19 19 15 11 12 12 10 8 6 3 3 2 1 1 1 1 2 3 3 3 4 4 5 5 6 6 6 6 6 5 4 3 3 2 2 2 2 4 3 1 2 4
3 4 7 4 4 17 5 3 5 6 5 6 5 5 9 6 7 13 15 11 8 6 4 2 1 2 1 1 1 2 2 3 3 4 5 5 5 6 6 6 6 5 4 3 3 2 2 3 3 4 4 4 6 6
9 14 14 9 7 8 6 5 4 4 3 3 3 6 3 6 5 12 16 13 11 7 4 3 4 3 2 0 1 2 3 3 4 5 5 5 5 5 5 5 4 5 4 5 5 4 3 2 3 4 4 5 6 6

GFSWCAN_850_spd_111.txt.gz
Wind_Speed
28 26 30 32 30 27 26 25 24 23 19 17 22 22 23 21 19 19 20 15 21 7 19 11 8 13 10 8 4 5 8 1 3 4 3 3 3 3 4 7 6 3 3 1 2 3 6 18 10 4 4 3 6 13
28 27 27 30 28 29 28 27 27 23 20 18 19 23 22 19 19 18 18 15 16 16 10 10 12 16 23 25 15 8 5 5 4 2 1 3 3 2 5 4 2 3 1 3 4 3 5 12 9 10 6 3 2 9
26 26 26 28 32 29 29 30 33 24 21 20 21 20 23 22 18 18 17 14 14 17 20 21 24 12 17 23 23 9 6 5 3 2 2 2 5 2 2 3 4 4 8 4 3 1 2 13 9 11 10 14 12 16
28 30 29 31 33 31 28 31 35 28 22 17 16 21 19 24 19 18 17 17 16 3 4 10 11 12 12 12 18 26 27 10 5 0 3 3 3 3 3 7 9 5 7 5 5 5 7 20 20 12 13 15 14 16
28 29 34 30 33 31 29 26 28 26 23 18 16 18 19 23 18 15 14 17 16 10 3 10 26 18 12 19 21 18 21 23 16 5 3 3 3 3 3 4 1 5 4 4 3 14 4 11 20 13 13 12 13 16
26 29 31 30 29 32 28 29 30 27 22 20 16 19 21 20 19 15 9 18 20 17 4 3 6 13 10 4 11 16 20 19 11 6 5 5 11 3 2 3 4 7 9 14 5 7 16 10 22 18 15 11 14 15
26 30 31 31 35 30 27 27 29 27 27 20 15 21 21 19 21 19 5 4 13 22 4 4 4 3 2 10 10 10 16 11 10 5 5 5 5 3 2 4 5 9 9 12 18 3 12 22 14 16 12 13 11 12
27 28 31 34 31 28 28 29 26 29 27 22 16 21 19 15 14 21 16 3 17 20 5 3 4 4 6 4 5 9 10 10 9 5 3 4 2 3 4 2 5 10 7 14 12 14 11 8 11 14 12 10 10 10
26 28 39 36 30 27 26 26 25 31 27 17 17 20 16 16 13 19 19 21 16 9 4 4 2 3 4 4 4 6 8 4 6 3 4 6 3 4 2 4 6 10 8 12 4 8 11 11 11 12 11 10 9 9
21 32 38 35 27 24 24 24 26 27 21 20 22 12 7 11 15 9 10 9 12 10 9 4 6 3 7 7 4 3 6 4 3 4 7 4 2 10 8 7 6 7 10 12 8 10 12 12 12 11 10 8 7 6
27 32 32 29 25 25 27 31 29 27 23 23 12 10 10 18 17 10 6 5 7 4 8 7 19 4 9 4 4 4 2 4 3 3 5 3 2 4 7 7 8 8 9 9 8 6 7 9 10 10 9 8 7 6
29 28 28 28 27 28 31 30 30 29 26 22 10 11 21 9 5 4 4 5 5 5 6 5 6 10 6 7 3 5 3 3 4 8 3 1 2 5 5 6 7 6 8 9 9 9 10 10 9 7 7 7 5 3
30 28 28 28 30 27 25 25 27 28 26 19 10 7 6 4 4 6 6 3 3 4 8 6 4 5 7 8 4 3 5 5 10 4 2 2 7 5 5 5 6 7 8 8 9 10 10 10 9 8 9 8 5 3
29 28 28 29 28 28 26 30 32 29 17 6 7 6 5 4 4 4 2 2 2 1 10 11 4 4 4 4 2 3 1 1 2 3 2 2 6 5 5 7 8 9 10 11 11 11 11 11 11 10 8 7 5 3
29 26 24 23 25 27 30 30 26 26 5 3 3 4 3 4 3 4 6 7 4 5 4 4 2 3 2 3 1 1 0 2 2 2 2 5 4 3 4 6 7 7 9 10 12 11 11 10 9 9 8 8 6 5
31 25 26 31 30 32 34 30 26 20 2 4 4 2 5 5 2 3 5 4 2 2 3 3 1 2 2 0 1 2 1 1 2 2 5 3 3 4 5 5 5 5 7 9 12 11 10 9 9 9 9 6 6 5
35 24 38 36 35 31 29 23 11 4 2 2 2 9 9 9 5 3 2 2 2 1 1 1 2 2 2 2 2 2 2 2 8 8 7 6 5 4 4 4 3 3 4 6 8 8 8 8 7 5 4 7 6 6
31 26 30 33 34 35 30 9 6 5 4 5 4 5 11 7 6 5 3 4 2 2 2 2 2 3 2 2 2 1 4 9 10 9 7 6 6 6 7 7 5 4 4 5 7 7 8 6 4 5 6 7 6 7
21 30 37 36 38 29 6 4 2 5 5 7 9 8 9 10 12 7 5 8 8 8 8 4 5 3 2 2 2 5 5 4 6 6 5 5 4 5 6 8 7 5 4 4 4 4 5 5 5 6 6 7 7 7
43 50 44 33 28 6 6 5 5 7 4 4 6 6 6 7 6 11 12 9 8 5 7 4 2 2 3 6 6 5 3 1 7 8 5 3 3 4 5 7 7 6 5 4 4 5 6 6 7 7 8 8 8 8
46 30 27 25 11 9 7 5 6 5 7 6 8 3 5 7 6 7 8 8 8 5 4 5 9 10 10 9 7 6 7 5 4 2 3 3 2 2 4 6 7 6 5 5 5 5 6 7 7 7 7 8 8 8
33 28 24 7 7 6 7 7 9 8 5 7 5 4 5 3 3 5 5 10 5 5 4 8 9 8 8 7 7 7 8 6 6 6 5 3 4 3 4 5 6 6 6 6 6 6 6 6 6 6 6 7 7 8
15 8 7 6 6 5 5 4 4 3 3 4 4 3 3 3 3 3 5 4 4 6 9 9 9 8 9 8 6 6 6 6 6 6 6 6 5 5 4 4 5 6 6 7 6 6 5 5 5 5 6 6 6 6
10 5 5 5 6 3 5 3 4 5 5 2 2 3 1 3 3 4 3 2 6 9 11 10 7 7 6 5 5 5 5 7 7 7 8 7 6 8 7 6 5 5 5 5 5 5 5 4 4 4 4 4 4 5
4 6 4 4 4 4 4 3 3 3 2 1 3 2 1 3 2 2 2 5 12 12 7 5 2 4 6 6 6 6 6 6 5 5 7 6 6 6 4 4 4 4 4 3 3 4 4 4 4 3 3 3 3 3
6 7 4 1 1 4 2 3 2 4 3 2 2 3 2 2 3 2 3 11 14 11 8 5 5 8 8 6 5 4 5 4 5 3 3 2 2 2 2 2 2 2 2 3 2 2 1 1 1 2 2 2 2 2
4 1 4 4 5 7 5 5 4 3 3 4 3 2 3 3 2 2 9 13 14 13 9 8 8 7 8 8 7 7 6 6 5 5 5 4 4 3 3 2 1 2 3 4 4 3 2 2 2 2 1 0 0 1
4 3 5 2 6 5 4 2 2 2 2 4 6 3 5 6 3 8 9 14 13 12 9 8 7 6 5 5 5 5 5 5 4 4 3 3 4 5 4 3 3 3 4 3 3 3 3 2 1 2 2 2 2 2
4 5 4 5 5 6 5 2 2 2 3 3 4 3 4 4 10 13 17 15 13 10 10 10 9 7 5 5 4 3 3 3 2 3 4 4 5 5 4 5 5 4 4 3 3 2 1 1 1 0 0 1 1 2
3 3 6 4 4 2 3 1 3 6 6 8 8 10 11 12 16 17 16 16 15 13 11 8 6 5 5 5 4 3 2 2 2 3 4 4 4 5 5 4 3 3 3 2 1 2 2 2 1 1 2 2 2 3
5 4 5 5 4 7 16 16 14 10 6 10 17 17 13 12 15 17 17 15 12 9 8 7 6 5 4 3 2 2 2 1 1 2 3 4 4 5 4 4 4 3 3 3 2 1 1 2 1 1 1 1 1 2
2 3 7 4 3 14 5 3 4 5 6 6 5 6 8 7 10 17 19 14 12 10 8 5 5 5 4 3 2 2 1 1 2 3 3 3 4 4 4 4 4 4 4 4 3 1 0 2 2 1 2 3 4 5
6 7 8 8 7 7 7 5 3 4 3 3 3 7 4 7 5 13 19 17 14 11 9 7 7 6 5 3 3 2 2 3 3 3 4 4 5 5 5 5 5 5 6 6 5 5 4 3 2 2 3 3 4 4

GFSWCAN_850_spd_114.txt.gz
Wind_Speed
24 21 24 28 27 27 26 31 32 30 28 22 18 18 25 25 24 22 13 16 14 8 11 8 10 13 12 10 7 2 6 1 3 3 3 3 3 4 5 8 8 5 5 2 4 3 4 23 11 10 13 20 10 14
24 27 27 25 27 27 27 31 39 28 27 23 20 19 23 24 24 21 11 16 16 12 7 9 11 18 20 15 12 5 6 5 4 4 2 3 6 4 7 4 1 3 6 6 5 6 14 17 14 17 17 6 9 7
24 25 28 29 26 27 30 29 29 26 27 24 22 22 24 24 23 21 13 13 15 10 14 17 16 13 16 21 17 10 6 7 3 2 3 2 4 4 5 5 6 4 11 3 7 4 10 16 16 16 15 14 11 13
26 24 25 27 27 25 27 29 29 29 27 24 23 22 24 23 19 20 17 16 15 4 4 5 9 14 9 9 17 23 19 5 3 4 4 4 4 5 6 9 10 7 6 11 10 9 14 19 21 14 13 14 15 15
26 25 25 25 26 26 32 29 31 33 30 26 23 23 22 24 22 17 16 14 13 9 3 7 16 14 14 15 14 17 17 16 13 4 3 5 8 7 7 5 5 3 3 4 3 12 3 11 16 12 11 13 12 12
26 26 26 27 30 30 32 30 34 37 32 27 23 23 24 23 23 18 9 16 17 13 4 3 5 6 5 7 14 16 15 12 8 5 6 6 11 6 3 3 8 7 5 8 6 4 14 4 18 14 15 13 12 12
26 26 23 26 28 35 34 31 29 36 33 27 23 22 22 25 26 17 5 5 15 16 3 4 4 2 5 7 8 10 13 9 8 6 7 11 11 5 4 10 2 5 6 8 12 9 5 15 10 12 12 11 10 11
27 25 24 26 25 28 32 33 34 38 33 28 20 22 24 22 19 19 10 6 12 14 4 3 3 3 7 5 6 8 8 10 9 7 5 8 6 6 4 5 5 7 3 10 8 9 7 7 10 9 8 8 8 8
25 23 26 30 33 28 35 33 33 35 31 25 24 25 21 19 12 11 14 10 11 4 3 4 3 1 6 4 4 8 8 4 7 5 5 5 4 5 3 3 5 8 6 8 2 7 7 8 9 10 9 8 7 7
24 27 28 28 26 38 37 37 36 33 34 26 27 11 5 11 9 11 8 7 8 7 7 4 7 3 6 6 6 4 8 4 4 7 6 4 4 7 6 6 5 6 7 8 4 7 9 9 10 9 8 7 7 6
29 28 31 34 34 35 38 37 41 41 32 24 12 10 9 19 13 8 7 8 8 5 8 8 17 11 7 5 4 5 2 2 3 4 4 4 3 4 4 5 5 6 6 7 5 4 6 6 7 7 7 7 5 4
31 37 41 41 37 35 35 33 44 39 25 19 12 16 19 10 8 6 6 5 6 5 7 5 6 11 7 8 7 4 3 4 4 9 3 2 3 4 3 5 6 6 6 6 6 5 6 6 6 5 4 4 4 3
42 47 40 37 37 37 37 42 39 32 29 17 7 5 7 6 5 5 8 4 4 6 8 7 4 6 6 7 4 3 5 4 7 4 1 3 8 5 4 3 4 6 7 6 6 6 6 6 6 5 5 3 3 3
40 36 34 34 34 38 39 38 33 28 21 6 7 6 4 4 5 3 5 3 4 4 10 10 6 4 5 4 2 4 1 1 4 5 2 3 6 5 4 4 4 5 7 7 8 8 7 6 7 7 7 6 4 2
35 35 35 34 35 35 34 30 26 25 11 4 2 2 3 3 4 5 7 6 4 6 8 5 2 5 4 3 3 3 3 2 3 3 3 7 5 4 3 3 3 4 5 7 8 8 7 7 7 7 7 7 7 6
34 33 31 30 29 29 32 29 25 21 3 3 4 2 4 4 4 4 6 6 5 4 5 2 2 3 4 2 3 1 2 1 3 3 7 6 5 4 2 2 2 2 3 6 7 7 7 7 7 7 7 6 6 5
31 20 31 31 29 29 31 23 14 5 1 2 2 4 3 5 5 4 2 2 2 3 2 3 4 1 1 3 3 2 2 3 9 9 6 6 5 4 3 2 1 2 3 5 6 6 7 7 7 5 5 5 5 5
16 27 32 34 35 30 20 6 4 3 3 4 1 3 4 4 4 4 2 1 1 1 1 1 1 1 0 2 3 3 6 8 8 7 6 5 5 5 5 4 3 3 3 5 5 6 7 6 6 5 5 4 5 4
29 39 38 38 36 20 5 4 3 4 4 4 6 4 5 6 7 5 4 5 5 6 5 3 3 2 2 3 5 7 7 6 7 6 5 5 3 3 4 4 4 2 2 2 3 3 4 3 3 3 3 3 2 1
35 36 36 33 27 4 5 4 6 4 3 4 4 4 4 4 4 7 7 5 4 4 5 3 2 3 4 6 5 4 3 3 7 7 5 4 3 2 2 2 2 2 2 2 2 3 3 3 3 2 2 2 2 2
34 31 31 32 14 5 4 6 5 4 7 5 7 3 4 4 3 4 5 5 5 4 3 5 8 8 9 8 7 6 6 6 4 2 4 5 4 3 2 3 3 3 2 2 2 2 3 2 2 3 3 3 3 3
41 40 30 17 5 4 5 4 8 8 5 7 5 3 3 2 2 3 3 6 4 4 4 8 8 8 8 8 7 7 7 6 6 6 6 6 4 3 3 3 3 3 3 3 2 2 2 2 2 3 3 3 4 4
34 16 8 5 4 4 5 5 3 3 3 6 5 3 2 2 2 3 4 4 4 4 8 10 10 9 10 9 7 6 6 5 6 6 6 5 5 4 4 4 3 3 3 3 3 2 1 1 2 2 2 3 3 3
15 4 4 4 5 4 4 2 4 5 5 3 3 3 3 3 3 2 3 3 7 8 9 10 8 8 7 6 5 6 6 7 6 6 6 5 5 5 5 4 4 3 3 2 2 2 2 1 1 1 1 2 2 3
3 5 3 4 3 4 3 3 2 2 2 2 4 3 3 3 2 2 3 7 12 11 9 7 6 5 6 6 6 6 6 6 5 5 5 5 4 3 3 3 3 2 2 2 2 2 2 2 1 1 1 1 1 2
5 4 3 2 2 2 3 4 4 4 3 3 2 4 3 2 2 3 4 13 14 11 10 8 8 8 8 7 6 5 6 6 5 3 3 2 2 1 1 1 0 3 2 2 3 3 3 3 2 2 1 1 1 1
4 2 3 3 3 5 4 4 3 2 3 4 4 5 3 4 3 3 8 12 12 14 12 11 10 8 9 9 8 7 7 5 4 4 3 2 1 0 1 1 2 4 4 3 3 3 3 4 4 4 4 3 2 2
4 2 4 3 4 3 3 2 2 3 2 4 8 4 6 3 3 8 9 17 17 16 13 12 12 11 10 9 8 7 7 6 5 3 1 1 2 3 3 3 4 5 5 5 4 4 3 3 3 4 4 4 4 4
3 4 4 4 3 4 3 1 2 2 2 4 3 3 3 3 8 10 20 20 18 14 12 12 11 9 8 8 7 7 7 6 4 2 2 2 4 6 5 5 5 5 4 4 4 4 4 2 2 2 3 3 4 5
3 3 4 3 2 2 1 1 2 4 4 5 6 6 6 8 12 19 20 20 17 15 14 12 10 10 9 7 6 5 5 5 5 4 3 3 4 5 5 5 4 4 4 3 3 3 3 3 3 3 3 3 3 4
4 3 4 4 3 3 6 12 11 9 5 5 9 9 9 8 14 18 19 19 17 15 14 12 10 9 8 7 5 4 4 3 3 2 2 3 3 4 4 4 4 3 3 3 3 3 3 3 3 3 2 2 2 3
2 2 5 3 4 10 7 3 3 3 3 4 4 7 8 6 9 16 21 20 18 16 14 12 10 9 7 6 5 5 3 3 2 1 1 1 2 2 2 2 2 2 2 2 1 1 2 3 4 3 3 4 4 4
4 4 4 6 7 8 7 5 3 4 3 3 4 8 6 7 6 14 24 22 18 15 14 11 10 10 8 7 6 5 3 2 1 1 1 2 2 3 3 3 3 4 4 3 3 2 1 0 1 1 2 3 3 4

GFSWCAN_850_spd_117.txt.gz
Wind_Speed
23 25 24 25 21 27 32 30 30 29 34 29 25 23 22 22 24 23 14 13 12 8 7 6 9 8 8 8 6 3 5 6 6 6 5 4 4 4 5 8 5 5 7 3 6 4 3 29 13 10 14 28 18 5
25 26 21 23 27 23 24 31 32 32 30 30 26 23 23 24 24 23 13 12 14 8 5 4 9 14 15 14 9 4 7 1 4 4 3 4 6 5 11 5 7 2 4 5 6 11 16 19 18 20 18 20 18 19
23 24 25 25 23 26 24 26 28 36 35 31 28 24 22 25 26 25 13 13 10 5 12 17 17 15 17 17 13 14 10 6 4 3 5 3 4 5 6 5 8 10 9 4 14 6 13 19 24 20 18 17 14 20
26 24 24 26 27 24 26 28 25 32 40 35 30 25 22 24 25 23 18 12 10 4 4 4 5 11 9 12 15 19 16 5 4 5 6 4 4 8 5 10 9 6 9 11 11 10 16 19 24 22 16 14 15 17
26 26 26 24 28 28 26 25 25 30 38 34 29 26 25 25 24 20 16 13 12 9 3 6 6 13 14 13 13 15 16 15 13 6 4 5 12 8 9 7 6 4 1 4 5 11 10 10 18 19 17 15 11 12
26 25 26 24 25 28 27 27 26 29 35 34 30 27 27 26 23 19 10 17 15 10 3 3 3 6 5 9 16 13 15 13 8 5 5 7 15 9 4 4 6 6 5 1 3 14 7 15 7 16 14 14 13 12
28 26 25 24 26 25 27 29 30 34 36 32 29 27 25 23 27 19 4 4 16 12 3 4 4 6 8 10 8 10 11 7 8 5 9 16 18 7 3 7 10 7 3 3 7 11 4 11 11 15 13 11 12 12
28 27 26 25 26 26 27 30 31 38 37 32 29 25 25 22 21 17 9 4 15 10 4 3 3 7 12 6 5 9 7 8 8 7 7 10 11 7 4 8 8 5 2 4 5 7 7 11 10 12 11 12 8 10
30 28 26 24 26 28 24 29 35 43 39 30 26 25 20 22 14 12 9 10 19 7 3 5 3 4 9 7 5 8 8 5 8 6 10 6 6 5 4 5 4 4 3 6 7 5 9 9 11 11 11 11 10 10
29 28 27 24 25 26 27 36 39 41 36 30 29 22 6 18 15 14 8 7 4 5 5 4 11 3 9 9 9 4 8 4 4 8 8 5 8 9 5 5 4 3 5 7 7 5 9 8 9 10 10 10 9 9
29 27 25 25 26 27 39 46 49 44 36 32 11 6 14 21 14 8 5 6 8 5 8 9 17 9 7 5 4 7 2 3 3 5 5 4 3 5 4 4 4 4 5 6 5 5 6 6 8 8 8 9 9 9
29 25 28 27 28 33 45 47 48 43 27 18 15 17 19 7 5 5 5 5 6 5 11 6 8 12 8 7 5 4 3 3 5 9 3 2 4 5 4 4 4 4 5 5 6 6 6 7 8 7 7 7 7 7
28 32 30 29 36 40 43 45 42 30 27 22 8 7 6 7 7 6 10 4 5 6 8 10 4 5 6 8 4 2 5 5 6 4 1 4 10 6 5 3 3 5 5 5 6 7 7 8 9 8 8 9 8 8
30 34 33 40 42 43 48 45 36 32 17 7 6 6 6 6 5 4 6 7 4 7 11 12 7 5 6 5 3 4 4 3 3 4 3 4 9 7 4 3 2 3 4 5 6 6 7 6 7 8 7 8 7 7
44 42 39 38 38 36 48 40 35 25 4 3 3 5 5 3 6 6 7 7 5 8 12 7 4 5 4 3 3 4 3 2 2 3 2 10 8 5 3 2 2 2 4 5 6 7 8 7 6 7 7 7 6 5
42 38 36 38 42 43 40 34 26 12 2 2 3 2 2 5 5 5 8 7 5 5 5 2 2 3 5 3 3 1 4 3 3 4 9 8 6 5 3 2 2 2 3 4 6 6 7 7 6 6 8 7 7 6
39 36 39 42 44 39 32 24 12 4 1 3 1 3 4 7 7 5 4 3 2 3 3 2 4 1 1 2 2 3 3 4 9 10 9 8 6 4 4 3 3 3 3 4 5 5 6 7 8 6 6 7 6 6
35 39 40 39 36 29 24 11 4 3 1 2 2 3 5 4 4 4 3 2 1 1 1 1 2 2 2 1 3 4 8 10 9 10 8 7 7 6 5 3 3 2 2 4 6 9 10 8 5 6 7 7 9 10
35 36 34 32 28 10 5 3 2 3 3 2 4 3 4 5 6 4 3 4 3 3 1 0 1 1 2 4 6 8 8 7 9 8 7 7 6 5 4 5 5 3 3 4 4 4 4 5 4 4 5 5 4 4
33 31 30 28 13 3 4 3 4 3 3 4 4 4 3 3 3 5 5 5 4 3 3 3 3 4 5 6 6 7 5 6 7 7 6 4 3 4 3 3 2 3 4 5 5 5 4 4 5 5 4 4 4 4
31 30 31 18 3 7 4 4 3 3 6 3 7 4 4 4 3 3 3 3 3 3 3 5 8 7 8 8 7 6 6 6 5 6 7 6 3 2 3 4 4 3 2 3 3 4 5 4 4 4 4 4 4 4
28 28 19 9 4 4 4 2 5 7 3 6 7 3 3 3 3 2 2 3 4 3 4 8 9 9 8 7 7 7 7 6 6 5 5 5 3 3 2 2 2 2 2 3 3 3 3 3 3 4 4 4 4 3
28 14 6 4 3 2 4 5 2 5 3 6 6 3 3 3 2 3 3 3 3 5 8 9 9 9 9 8 7 6 8 7 6 6 5 5 4 4 3 3 3 2 2 2 2 2 2 3 3 2 3 3 3 3
17 9 3 4 5 4 5 3 4 4 5 4 4 3 4 3 4 3 2 3 7 9 9 10 9 9 7 6 5 5 6 6 6 6 5 4 4 3 3 3 3 2 2 2 2 2 2 3 3 3 3 2 2 1
6 4 5 5 5 5 5 5 4 3 3 3 4 3 4 5 3 3 4 7 13 12 11 10 8 6 6 6 5 4 7 4 4 4 4 4 3 2 2 2 2 2 3 2 2 3 4 3 2 2 2 2 3 3
2 1 1 2 3 3 4 4 6 5 4 4 3 4 5 3 4 2 3 13 15 14 12 10 9 9 8 6 6 5 4 5 5 3 2 2 2 1 1 1 1 2 5 4 3 3 4 4 4 3 3 5 4 2
3 2 2 2 2 4 3 3 5 3 4 4 4 6 4 4 3 3 8 12 14 12 11 10 9 8 9 8 7 6 5 6 8 6 3 2 1 1 2 1 3 7 5 4 3 4 4 4 4 5 4 3 4 2
3 2 3 4 3 1 2 2 4 4 3 3 8 5 4 2 3 7 12 13 16 14 12 11 10 10 10 9 8 7 6 6 5 3 1 1 2 3 3 4 5 5 6 6 4 3 3 3 2 3 3 3 5 4
2 4 4 3 2 2 2 1 2 2 1 4 4 3 3 3 5 8 14 15 15 14 13 12 11 11 11 10 8 7 6 5 4 2 1 1 2 6 7 6 5 5 4 3 7 4 4 2 3 3 3 3 4 4
3 3 3 3 2 2 2 1 2 3 3 4 5 5 5 6 10 17 16 15 14 12 11 11 12 10 9 8 7 7 7 6 5 4 2 2 4 7 6 6 5 5 4 3 2 4 6 3 4 4 3 2 2 3
3 3 3 2 2 2 3 5 6 6 4 3 4 7 9 7 9 14 13 14 16 15 14 14 13 11 10 9 7 6 5 5 5 4 4 4 4 5 5 4 4 4 3 3 3 2 2 1 1 1 2 2 3 2
3 3 4 3 3 6 5 4 4 3 4 4 4 6 7 8 8 11 20 19 17 14 13 13 12 12 11 10 7 7 5 4 4 3 3 3 2 2 2 2 2 2 2 2 2 2 0 1 1 1 3 3 5 6
3 3 4 5 6 6 6 5 5 4 4 6 5 10 7 8 6 11 19 20 15 13 15 12 14 13 11 10 8 7 5 4 4 3 2 1 1 1 1 2 2 3 3 3 3 3 2 1 2 3 4 5 6 6

GFSWCAN_850_spd_123.txt.gz
Wind_Speed
13 17 17 21 20 20 26 26 25 26 24 25 23 19 16 19 17 19 15 9 6 1 6 6 5 7 8 7 3 6 4 4 3 1 2 3 2 3 3 3 3 3 5 3 4 4 4 28 7 7 9 18 23 26
12 14 15 11 19 22 21 26 26 27 26 24 23 20 16 20 18 18 20 12 9 6 5 5 8 6 4 3 4 3 2 2 2 1 2 3 3 3 3 2 4 2 3 1 3 3 3 9 10 15 18 16 22 22
14 14 14 17 14 20 26 23 27 29 31 27 23 21 20 20 19 23 21 9 10 5 12 10 15 12 14 13 8 2 1 4 5 3 1 2 1 1 1 2 0 1 4 2 2 5 3 11 12 16 17 17 15 16
16 15 16 15 16 14 15 24 29 26 25 25 23 20 24 21 21 23 21 12 10 2 1 4 6 8 8 10 12 14 14 8 5 5 1 1 1 4 2 4 2 3 2 2 2 4 5 7 14 15 14 16 17 14
15 17 17 18 16 14 14 17 21 34 29 25 25 27 25 22 21 19 18 13 10 1 3 7 11 7 7 9 10 10 10 8 7 2 1 2 4 2 5 2 3 5 5 3 4 2 1 3 11 15 11 14 12 14
16 16 18 19 19 17 13 12 15 14 31 25 26 31 28 23 21 16 7 18 13 9 1 2 3 5 7 15 12 13 12 11 10 2 3 5 11 5 2 3 3 3 4 4 3 0 1 4 5 12 11 13 5 11
17 17 18 19 18 18 17 13 17 14 16 34 31 33 28 22 22 11 5 4 15 13 2 4 4 1 11 14 16 14 12 9 8 4 5 7 13 7 2 3 7 8 4 4 3 4 1 7 6 7 10 9 10 9
22 19 18 20 19 16 19 17 18 21 17 20 33 32 24 19 24 10 4 5 18 12 4 0 3 1 10 6 3 7 5 4 5 5 4 5 5 8 3 4 13 11 6 4 2 1 4 4 7 9 7 7 7 10
24 21 19 20 20 19 20 22 20 21 21 25 32 27 21 22 15 12 8 11 12 4 2 4 2 2 9 6 5 6 5 2 6 5 5 4 3 3 4 12 13 10 6 5 5 4 6 6 4 8 8 6 4 7
25 24 22 19 20 19 22 25 24 24 27 34 33 15 6 14 11 15 9 4 4 5 5 4 5 1 4 5 7 7 6 3 2 6 8 3 2 10 14 15 12 8 6 4 3 6 4 3 4 7 5 5 5 5
26 25 23 21 21 21 22 28 29 31 43 35 10 6 16 20 12 5 4 4 6 3 7 9 16 4 3 2 3 9 3 2 3 3 6 3 2 4 11 13 10 9 6 7 6 2 2 3 2 3 6 6 5 6
27 25 23 21 22 23 25 26 31 43 26 17 18 27 25 6 4 4 4 3 4 5 7 8 14 21 6 9 5 6 3 1 5 6 3 3 3 14 13 12 9 8 8 5 1 2 4 4 2 2 3 5 5 8
28 27 25 23 23 25 30 28 35 37 28 32 12 7 7 6 2 8 7 3 3 4 7 11 2 8 9 8 2 2 2 4 5 1 2 2 13 13 13 9 5 3 2 1 2 2 3 5 5 4 4 5 3 6
27 27 26 26 23 24 28 34 39 40 23 6 6 6 4 4 5 5 4 5 9 8 12 15 6 4 4 2 2 3 4 2 3 1 2 3 14 12 9 6 1 3 2 4 5 5 3 4 7 7 5 5 5 5
29 28 27 24 24 21 45 48 38 19 5 4 5 5 5 4 2 1 4 5 5 10 16 8 3 3 1 2 3 2 2 3 3 2 2 13 11 9 8 4 4 5 4 4 6 8 7 5 9 12 11 8 6 6
30 25 25 27 24 44 51 40 19 6 4 3 3 2 8 5 3 2 9 8 8 12 15 5 3 3 3 3 3 5 1 3 2 3 15 14 11 7 5 3 3 3 2 5 4 7 11 12 11 10 13 12 12 9
31 23 31 26 42 41 30 20 8 4 4 3 3 4 6 5 7 5 5 4 3 6 1 2 3 6 1 2 2 3 2 2 14 17 15 10 7 5 5 6 6 4 5 5 9 10 8 6 8 10 9 9 9 10
21 32 42 46 41 29 18 8 4 3 4 7 6 5 3 4 6 5 3 3 3 2 2 1 4 0 2 3 2 3 9 17 14 13 10 9 10 10 5 3 4 2 6 6 4 4 7 7 7 6 5 6 7 5
47 50 53 43 31 18 5 3 4 4 5 5 4 4 3 4 5 2 1 6 4 4 2 1 1 2 2 4 9 15 18 18 16 13 11 7 9 9 8 7 8 9 7 6 3 5 6 8 5 2 1 4 4 3
51 42 31 24 15 5 5 4 4 6 3 4 5 4 4 3 4 4 4 5 5 4 3 2 2 3 7 10 14 13 16 14 14 15 11 9 9 6 5 5 3 4 6 3 9 6 7 5 7 7 6 2 2 3
35 30 24 18 11 8 5 3 4 4 6 3 7 6 4 5 3 4 4 6 3 3 3 5 13 13 12 12 12 13 15 13 13 14 13 13 9 6 8 8 7 4 4 4 4 5 3 4 5 4 6 3 5 6
29 25 17 10 6 4 4 3 5 8 4 6 5 6 3 3 5 4 5 2 3 2 4 12 12 12 13 12 11 11 10 10 14 16 12 10 11 11 8 5 4 2 2 2 2 2 4 6 0 3 4 4 7 9
22 12 6 4 4 3 2 6 2 4 3 5 5 3 2 2 3 7 2 3 3 6 15 14 15 11 13 13 14 14 11 10 12 12 11 10 7 5 5 5 5 8 6 5 2 3 5 6 5 2 4 2 3 3
12 3 3 2 3 4 4 3 3 4 4 2 2 2 3 4 5 3 2 6 11 14 14 15 15 16 17 15 14 13 10 9 12 11 8 8 8 6 3 2 1 3 3 2 2 3 5 7 4 3 4 3 2 1
3 1 2 3 3 3 2 3 2 2 2 3 2 2 2 5 2 3 3 8 19 17 15 17 15 15 17 16 13 14 13 11 11 13 12 8 4 4 3 1 0 3 2 4 4 2 2 3 4 6 4 4 5 2
1 1 1 5 3 2 3 3 3 4 2 2 2 3 4 1 2 3 2 16 22 21 23 22 20 18 17 11 12 20 14 13 9 8 11 11 10 10 10 8 8 4 4 4 5 5 4 1 2 5 5 5 5 5
2 3 2 3 1 2 2 1 4 2 3 3 3 2 2 2 4 2 10 13 19 19 21 18 15 16 19 18 15 16 15 15 11 7 5 6 7 10 10 9 9 7 9 8 5 6 5 5 4 3 3 4 4 3
0 2 4 3 3 1 2 2 3 3 3 4 9 3 3 3 2 5 7 14 16 22 21 19 15 17 18 16 14 13 12 15 12 7 6 6 4 3 3 4 5 6 6 3 1 3 5 5 5 3 3 3 5 7
2 2 5 2 1 3 2 2 0 2 3 2 1 2 3 4 5 11 18 19 23 25 24 22 20 18 16 13 11 11 12 14 13 10 6 3 4 0 2 5 5 2 2 2 1 3 4 2 5 6 5 6 6 7
4 7 3 3 2 3 2 3 2 4 4 5 3 4 5 8 13 16 20 22 24 24 23 23 21 19 17 17 17 18 17 15 12 10 11 9 6 5 6 6 5 3 2 3 4 2 2 3 2 1 3 4 4 5
3 4 3 5 2 2 4 5 6 5 5 7 7 5 8 7 15 18 18 19 20 21 22 21 21 20 19 19 17 16 16 13 13 11 8 7 7 5 4 3 2 2 1 1 1 3 4 4 2 4 6 8 7 5
3 2 4 1 3 2 2 3 3 4 4 6 6 7 7 6 9 16 24 24 22 23 21 19 20 18 17 15 13 12 10 11 12 9 8 5 3 3 2 1 1 2 2 2 3 3 4 4 4 6 8 8 7 8
1 1 1 2 2 2 4 3 5 2 6 5 10 12 13 9 8 9 19 30 26 26 23 22 22 19 18 15 13 12 10 9 9 8 6 5 4 3 2 3 3 3 3 3 3 3 2 1 2 3 3 4 5 6

GFSWCAN_850_spd_129.txt.gz
Wind_Speed
6 2 11 18 22 30 27 24 26 22 21 22 21 20 24 22 17 13 15 13 12 7 8 9 8 8 9 8 4 5 4 3 3 3 2 2 2 1 1 1 1 2 1 1 1 1 5 8 4 4 6 12 15 18
7 8 2 13 18 25 28 29 27 25 24 22 20 19 19 22 16 13 13 10 13 9 9 10 10 10 10 10 15 4 4 3 4 3 1 2 1 2 3 2 3 1 4 3 5 4 1 2 0 6 9 10 12 14
9 11 10 6 13 21 27 27 30 30 28 25 22 18 16 16 15 12 12 9 9 10 8 6 5 7 9 8 8 5 3 4 5 5 5 2 1 3 2 3 1 2 3 2 0 3 4 5 4 8 8 9 10 10
10 11 14 11 11 15 18 26 29 29 30 25 22 19 15 15 13 12 15 10 8 8 5 3 7 7 9 8 6 4 8 11 10 6 3 2 2 5 2 2 3 5 2 4 4 1 4 8 7 9 9 9 10 8
13 12 14 14 13 15 20 22 25 31 31 29 23 19 14 14 15 15 15 12 9 4 4 5 7 8 7 9 10 7 8 9 7 3 2 2 2 2 0 2 3 6 6 4 5 8 4 4 4 7 8 10 8 9
15 14 16 17 15 13 17 21 25 26 30 31 26 21 16 17 15 20 6 7 9 6 4 2 3 7 10 9 7 8 6 7 5 4 3 3 3 2 2 2 4 4 5 3 3 7 5 4 4 4 5 5 8 10
15 17 19 17 19 17 16 25 23 24 25 30 26 22 21 17 18 6 5 10 11 6 4 3 3 3 9 13 9 8 9 4 3 3 4 3 3 7 2 3 4 6 5 5 6 7 6 6 4 7 6 5 8 9
16 18 19 19 19 20 19 21 23 24 24 27 27 26 22 21 15 9 7 16 14 6 4 3 1 3 7 6 5 6 6 5 4 3 2 3 2 4 4 10 11 9 11 7 3 6 3 6 7 6 5 7 10 10
19 19 20 21 21 20 20 23 23 28 29 31 29 29 24 16 7 11 12 18 13 2 3 2 3 3 5 4 5 4 5 1 2 3 4 4 2 4 2 4 7 12 7 8 8 8 7 5 6 6 7 8 7 9
21 20 21 22 21 20 21 25 27 34 39 43 39 13 7 12 24 21 7 4 5 2 2 2 4 1 6 3 2 4 1 2 1 4 5 2 3 6 5 9 9 9 9 6 3 1 3 3 5 7 7 7 9 8
25 21 22 23 23 24 23 27 28 44 45 37 8 5 29 25 7 4 4 2 1 1 5 5 13 4 7 3 3 4 3 1 1 3 3 3 2 5 10 11 8 4 1 3 3 2 2 4 5 5 7 6 7 7
27 24 22 24 24 25 25 30 34 47 22 20 22 34 23 5 4 4 2 0 2 3 6 7 7 8 6 5 3 4 3 1 3 6 2 3 0 13 12 9 4 1 1 1 1 1 2 3 3 4 4 5 5 5
29 25 24 26 26 26 25 30 34 27 36 41 14 6 7 2 4 6 7 4 2 5 9 9 2 9 5 5 3 3 3 4 0 1 3 2 10 12 10 7 5 2 1 2 2 2 2 2 2 2 2 2 3 3
29 27 25 26 25 25 34 36 40 41 26 5 5 5 4 4 4 4 4 5 7 5 15 17 7 5 5 3 2 3 3 2 2 1 4 4 16 14 10 6 3 2 2 1 1 2 1 3 4 4 3 3 2 1
30 26 25 24 26 28 33 42 23 19 6 4 5 4 4 3 3 5 9 4 5 4 17 11 4 2 1 3 2 2 2 3 4 3 3 14 18 14 10 6 4 2 1 0 1 1 2 4 5 7 7 6 7 5
29 25 24 25 24 24 33 32 21 7 4 3 4 5 4 5 3 7 6 4 5 15 16 4 2 2 2 3 3 5 5 5 3 2 11 20 17 13 9 6 4 3 1 1 4 6 6 6 6 8 9 8 8 9
32 21 25 24 23 23 37 17 5 3 4 4 3 8 8 7 7 7 8 8 12 11 3 3 5 6 2 2 4 2 4 3 7 11 17 17 14 11 8 7 6 3 3 5 5 3 1 3 3 3 4 3 5 5
19 25 24 25 25 17 18 1 4 4 5 4 4 6 6 6 10 7 7 10 8 5 5 3 3 2 4 5 3 4 5 10 11 18 16 13 10 9 8 7 6 5 6 4 2 2 3 2 3 5 5 4 6 5
26 25 26 23 26 16 4 3 1 5 5 5 8 8 5 6 7 6 8 8 5 5 4 4 3 3 3 4 5 13 18 18 23 19 15 11 10 9 8 8 6 6 4 5 4 3 3 5 7 6 4 5 6 6
24 26 27 24 10 4 3 4 4 7 4 4 6 6 5 4 5 3 4 7 7 4 3 2 3 4 5 7 9 14 19 18 22 21 17 15 11 10 9 8 9 8 7 5 3 2 1 5 7 6 5 5 7 7
33 26 16 11 5 5 5 4 5 5 7 4 10 4 4 7 4 4 3 6 4 3 3 5 6 7 7 8 12 16 17 17 18 13 20 20 14 11 12 9 9 6 4 5 3 2 2 4 6 4 4 2 5 4
23 16 11 7 3 4 5 6 7 6 4 6 6 4 4 3 4 4 3 3 4 5 5 5 10 12 11 12 14 14 14 14 13 9 15 15 15 13 13 10 9 6 4 4 4 4 4 7 4 4 3 3 3 4
14 10 4 5 4 5 4 3 3 3 3 5 4 2 0 2 3 6 3 4 5 8 9 10 14 13 12 13 15 16 16 14 15 13 15 14 12 12 10 9 8 7 6 5 4 3 2 2 3 4 5 7 7 6
9 3 4 4 6 3 3 2 3 3 4 2 2 2 2 3 6 1 3 4 6 10 15 18 19 18 16 15 17 17 16 14 15 17 16 15 14 12 8 8 8 8 8 6 5 5 4 2 2 2 4 5 6 6
2 4 3 3 3 3 2 2 1 2 2 2 2 0 2 3 1 2 3 4 12 16 20 21 20 19 22 20 18 17 16 16 17 18 16 13 14 13 12 10 10 9 9 8 9 9 9 8 6 5 4 4 4 4
4 3 2 2 0 3 3 2 3 3 2 1 1 3 3 2 0 5 3 4 12 22 24 24 24 23 21 19 21 20 18 14 12 15 17 15 12 9 10 10 9 7 6 6 7 10 11 11 10 10 8 8 7 5
1 2 1 2 2 3 3 2 3 3 2 3 3 2 3 2 4 4 3 4 6 13 19 20 20 20 21 21 17 15 14 14 10 11 13 14 12 10 9 9 8 9 9 9 10 10 10 11 11 11 10 9 9 9
1 3 2 2 2 1 3 1 3 4 3 4 8 2 5 7 4 2 4 3 4 6 15 18 17 16 18 18 17 18 19 18 15 13 13 14 14 13 12 12 12 11 11 11 9 7 8 9 8 6 6 5 7 8
1 1 4 2 1 1 2 3 3 3 3 5 4 3 4 4 4 4 4 6 7 11 20 24 23 20 18 18 16 17 19 19 19 17 15 13 12 12 12 11 10 9 9 8 7 5 5 6 6 5 5 6 7 8
1 3 2 1 3 3 1 2 1 2 3 6 5 4 5 6 6 6 6 8 10 14 19 23 21 22 23 23 22 21 19 16 14 12 11 11 9 9 10 9 8 7 6 6 6 5 4 3 3 3 4 5 5 7
1 3 1 1 2 1 2 4 5 8 8 7 11 11 9 6 9 11 11 12 13 16 21 23 22 22 22 23 23 21 20 19 18 17 14 11 10 10 9 7 6 5 5 4 5 6 6 5 5 4 5 5 5 5
1 1 2 1 2 2 4 2 3 3 3 3 4 7 5 4 4 5 10 20 23 24 23 22 23 22 20 17 14 14 11 14 15 15 14 12 10 9 8 7 6 5 4 4 4 4 5 5 4 4 5 5 5 6
1 2 1 2 1 1 1 2 2 3 3 3 3 4 6 3 4 2 4 10 22 24 22 19 17 16 17 17 15 13 14 11 15 14 13 12 10 9 8 8 7 6 6 5 5 4 4 4 4 4 4 5 6 7

GFSWCAN_850_spd_132.txt.gz
Wind_Speed
7 10 20 23 22 27 25 26 23 21 20 23 27 24 20 16 13 11 15 15 16 11 8 8 9 10 11 11 5 9 5 1 3 3 2 2 2 1 2 1 3 4 4 3 2 1 5 2 2 2 1 7 9 12
9 7 14 25 24 24 23 24 26 23 23 21 23 25 20 18 15 11 18 17 16 14 14 18 17 13 12 10 18 7 4 3 4 4 1 3 2 2 3 2 3 2 4 4 5 4 2 3 6 2 1 5 7 10
8 11 9 20 30 26 24 24 26 24 22 19 18 22 20 17 15 12 20 21 20 24 16 11 13 16 15 13 14 7 4 4 5 5 6 2 3 2 3 3 1 2 3 1 1 1 4 7 4 2 4 2 7 9
6 13 6 11 26 27 28 27 24 23 27 24 21 20 18 15 12 10 16 17 17 11 6 6 9 9 9 7 6 9 15 12 13 8 5 2 3 2 2 2 3 4 2 3 4 4 1 7 7 5 4 3 6 8
8 11 14 6 14 26 29 30 29 25 24 23 20 18 17 16 15 14 15 15 13 6 6 8 14 9 9 7 11 11 11 15 8 4 3 1 3 3 1 2 2 6 6 4 5 4 2 1 5 3 3 5 6 9
10 12 16 14 10 17 26 28 29 29 24 21 18 15 15 15 15 18 8 9 15 25 10 3 7 8 14 12 12 10 8 7 5 4 3 2 2 3 2 3 4 8 9 9 2 5 3 2 3 3 3 5 6 9
11 13 14 14 12 17 20 24 33 33 27 23 19 16 16 15 17 7 5 13 10 9 6 3 3 5 13 14 9 9 9 6 4 4 2 3 3 5 2 3 4 7 5 6 4 6 4 6 4 5 5 5 7 11
13 13 15 16 13 15 22 25 28 35 31 26 22 21 19 17 13 13 15 15 10 8 6 3 2 4 7 6 4 4 5 4 2 3 3 3 3 1 3 6 7 4 7 5 3 3 3 4 5 4 4 7 10 12
14 15 17 18 17 16 20 19 29 28 31 27 27 26 20 12 6 11 17 12 11 7 5 3 4 3 6 6 5 3 3 2 1 2 2 4 2 4 1 2 7 11 5 6 4 2 3 3 4 7 9 11 9 10
15 17 18 18 19 19 21 24 23 34 32 33 33 9 6 11 23 18 6 3 4 5 4 3 4 3 6 3 2 3 2 2 1 3 5 2 3 5 3 6 9 9 9 8 6 2 4 6 7 9 9 8 9 10
18 19 20 20 19 20 22 27 26 35 37 28 6 6 27 20 4 4 4 3 2 3 2 3 3 5 3 3 2 2 2 1 1 3 3 2 3 4 9 9 8 7 5 2 1 2 2 3 4 6 8 8 9 8
20 20 22 22 20 20 25 26 43 45 23 13 21 27 18 3 4 5 1 1 1 2 4 6 5 5 5 4 4 3 3 1 3 7 2 3 2 10 12 8 6 4 2 2 1 1 2 3 4 5 6 7 7 7
22 21 22 21 22 22 26 41 36 26 32 39 13 5 4 2 5 4 5 0 1 5 9 7 1 5 4 3 4 3 4 4 1 1 3 3 11 14 13 10 7 4 2 1 1 1 2 3 3 4 4 5 6 6
23 21 22 22 20 22 27 28 32 37 19 6 6 4 3 4 4 4 4 4 5 6 18 17 7 4 4 2 3 3 3 2 1 0 5 3 18 18 14 9 6 3 2 1 0 1 2 3 4 4 3 4 5 4
23 20 21 20 19 20 22 39 25 18 7 4 5 3 4 2 3 8 6 7 7 12 23 9 5 3 1 3 2 3 3 3 5 4 3 11 20 19 14 9 5 3 2 1 2 3 4 6 7 8 7 8 9 8
23 20 19 18 20 24 26 24 12 8 5 4 4 4 7 7 5 6 6 5 5 18 17 4 3 2 1 4 3 5 6 5 4 3 8 19 19 16 12 8 6 4 3 5 6 6 6 6 7 7 8 8 9 9
24 18 18 17 17 23 17 15 5 4 5 5 3 8 6 11 10 10 9 8 12 15 3 4 4 6 1 2 3 4 5 3 8 10 13 18 17 14 10 8 7 5 6 7 7 5 5 5 4 4 5 4 6 5
17 21 22 19 15 19 9 5 5 5 5 4 4 6 6 11 13 9 8 9 10 7 6 3 5 2 4 5 3 3 5 9 8 13 18 16 13 10 8 9 8 7 8 8 5 4 7 3 1 1 1 2 4 4
23 22 19 16 12 14 4 4 4 5 4 5 9 9 6 9 10 10 11 13 8 9 5 3 2 3 3 6 5 11 16 17 22 21 17 12 10 11 11 9 8 9 7 6 6 6 5 6 6 5 3 2 3 3
19 20 20 18 10 3 4 4 4 5 3 4 6 7 7 7 9 8 10 10 8 4 2 3 4 4 3 4 6 10 17 18 21 23 19 16 13 10 9 8 8 9 8 8 6 3 3 5 6 6 5 5 6 5
26 23 19 10 4 5 4 3 5 5 7 4 10 6 5 8 5 5 5 9 5 4 4 7 7 7 6 5 8 13 16 16 17 13 19 22 16 13 12 10 9 7 5 4 4 3 1 3 5 3 4 3 6 6
30 21 15 7 3 3 5 5 7 8 4 8 7 4 5 4 4 4 5 5 5 6 7 6 10 11 11 11 13 14 13 15 14 9 14 16 18 16 14 10 9 7 4 4 2 1 2 5 3 2 3 3 4 5
18 10 4 3 3 3 4 4 3 3 3 3 4 3 1 2 3 6 3 5 5 9 11 11 9 11 11 15 17 16 16 15 14 12 15 14 12 12 13 11 9 6 5 4 3 2 2 1 2 2 2 6 4 5
6 3 2 3 4 2 3 3 4 4 4 2 2 2 2 3 5 1 3 4 6 7 13 13 17 18 16 16 19 19 19 16 14 15 16 16 15 15 11 8 8 7 6 5 4 3 3 2 3 3 3 6 5 5
1 5 3 3 3 3 3 2 2 2 2 2 2 0 2 3 1 1 3 4 7 10 15 18 20 19 19 20 19 19 18 17 17 18 19 15 14 14 12 11 10 8 7 7 7 7 7 7 7 7 7 6 5 5
4 4 3 1 1 2 3 3 3 4 3 2 1 3 2 2 1 5 3 3 7 10 18 23 24 22 19 18 21 22 20 17 15 16 17 16 12 8 9 9 8 7 5 5 5 5 7 9 10 10 9 9 9 9
2 2 2 2 2 4 3 3 4 3 2 3 3 2 3 1 4 4 4 5 3 3 12 16 18 18 17 19 18 18 18 17 14 12 14 15 12 9 7 7 6 6 5 6 7 8 9 9 9 8 9 10 10 10
2 1 2 1 2 1 3 1 3 3 3 4 8 3 5 6 4 1 2 2 3 2 9 15 14 13 13 17 19 20 20 18 17 15 15 15 15 13 12 10 11 10 9 8 8 7 6 5 6 6 6 6 6 6
2 2 2 2 1 1 1 2 3 2 4 5 3 3 4 4 2 2 3 4 5 5 10 19 20 17 16 20 19 18 18 20 20 19 17 16 14 13 12 11 10 9 8 7 6 5 4 3 3 3 3 4 6 8
1 2 2 2 2 2 0 1 1 2 3 5 4 4 5 6 6 5 6 7 7 7 8 15 20 22 24 25 23 21 19 18 16 11 9 10 9 8 8 8 7 7 7 7 6 4 2 1 1 2 2 3 6 6
2 2 2 1 1 1 2 3 5 7 8 7 10 11 9 7 8 9 10 10 9 9 11 16 20 22 21 23 22 20 21 20 18 15 15 12 11 10 9 8 8 8 8 7 6 5 4 3 3 3 3 4 6 7
1 1 2 0 1 1 3 2 2 2 2 3 3 4 3 3 2 2 4 6 13 14 15 16 19 19 17 17 16 16 12 12 18 17 16 12 10 11 11 9 9 8 8 7 7 6 5 5 4 3 4 5 6 7
1 1 1 1 1 0 1 2 2 4 3 2 1 1 2 1 1 3 4 5 7 12 14 14 14 15 15 15 15 16 15 12 14 17 16 14 12 11 11 10 10 9 8 7 6 5 5 5 4 4 4 5 6 8

GFSWCAN_850_spd_135.txt.gz
Wind_Speed
14 5 21 18 17 17 17 22 26 25 28 24 19 20 19 18 13 20 25 27 25 14 15 14 14 13 14 12 6 11 8 2 3 3 2 3 2 3 3 4 6 6 7 4 3 3 4 4 5 3 2 1 4 7
8 4 18 21 18 18 21 20 20 23 30 24 19 18 19 18 18 24 27 32 34 23 21 27 24 17 15 13 25 6 7 6 5 4 2 3 2 1 4 4 0 3 3 4 5 2 3 5 3 6 2 2 2 8
3 10 20 22 21 18 22 22 22 24 21 22 20 21 18 17 16 20 30 33 37 33 22 22 24 23 17 16 19 9 5 6 6 7 6 2 3 2 3 2 3 1 2 2 2 2 4 8 9 5 3 2 2 5
7 10 18 26 23 23 22 26 25 22 21 20 19 17 15 18 20 24 29 27 28 17 7 9 16 22 18 11 9 13 21 16 17 10 5 2 3 1 2 2 1 1 5 4 2 3 4 6 8 7 4 2 2 4
7 12 8 28 27 25 24 23 24 24 23 20 20 18 17 19 18 19 24 23 19 12 6 9 22 20 15 10 17 17 18 21 11 5 3 2 3 3 2 1 2 6 5 3 3 2 2 3 10 7 4 3 0 2
4 14 8 21 27 27 26 23 25 26 26 23 23 22 21 21 20 18 14 18 21 34 13 3 8 14 17 16 18 17 15 13 8 5 4 3 3 3 2 2 3 6 5 5 2 5 4 6 7 5 3 2 1 5
6 14 11 11 28 26 27 25 24 24 25 24 21 19 18 16 15 8 9 13 20 19 9 4 3 5 15 17 19 17 13 11 7 4 3 3 2 3 2 2 2 4 4 4 3 6 5 6 4 5 3 1 2 5
9 12 15 10 20 27 25 27 23 21 22 22 23 21 19 17 25 28 22 16 16 15 8 3 3 4 5 6 4 5 5 5 5 4 3 2 3 2 3 5 4 3 6 6 5 2 2 4 5 3 2 1 4 6
12 13 15 12 15 22 26 32 30 26 24 23 25 24 20 16 9 17 20 18 14 8 6 3 4 4 6 5 5 4 3 2 2 2 2 3 2 4 2 3 5 9 4 7 5 4 3 4 2 1 4 5 3 5
14 15 15 13 14 21 24 33 31 32 25 27 21 7 6 11 21 13 7 4 6 7 6 3 4 3 6 3 2 2 4 2 2 1 4 2 3 3 4 7 8 8 6 8 8 4 5 3 2 3 3 4 4 5
16 16 16 15 14 17 29 29 33 32 33 17 5 6 25 10 5 5 4 5 4 3 4 4 6 6 4 3 3 1 2 2 2 2 3 3 3 5 9 8 9 9 7 5 4 3 2 2 2 1 2 3 4 5
17 18 17 16 17 19 22 37 38 36 17 7 18 18 5 3 5 6 2 2 2 2 3 5 6 7 5 3 5 2 2 2 2 8 2 2 1 10 12 11 9 7 5 4 3 3 3 2 2 1 1 3 5 5
18 20 18 17 19 22 35 28 35 25 25 28 8 4 2 4 6 3 3 0 2 5 6 7 4 5 4 4 5 2 3 2 3 2 2 2 8 13 14 13 11 8 5 4 4 4 3 3 3 3 4 4 5 6
19 20 18 17 16 20 33 30 36 29 14 5 4 3 2 0 1 3 2 3 4 10 19 17 6 3 3 2 3 4 2 2 2 2 4 3 16 17 17 14 10 8 5 5 4 4 5 6 6 7 8 8 8 7
19 18 17 16 15 20 22 27 19 17 6 5 4 3 3 2 3 7 10 10 8 25 20 11 7 4 2 3 1 3 4 3 4 4 2 10 21 22 19 14 10 8 6 5 5 6 8 9 10 10 11 11 11 11
19 18 15 14 16 22 33 29 23 8 4 3 4 5 4 5 3 5 11 10 15 25 12 4 3 2 2 3 3 5 5 5 3 2 8 21 23 21 17 12 10 8 7 8 9 9 10 11 11 10 10 9 9 9
21 19 17 16 14 15 25 14 7 5 3 4 3 7 5 7 8 6 11 10 19 19 2 3 3 4 3 2 3 4 4 2 7 10 16 22 23 20 15 13 11 10 10 11 10 9 9 8 6 6 6 5 6 6
18 21 18 18 18 17 14 4 5 4 5 5 3 7 5 9 17 12 10 15 13 7 5 2 6 2 4 4 3 3 5 10 9 12 20 21 19 16 13 13 12 12 12 11 8 9 8 4 3 2 3 3 3 4
23 21 17 15 21 5 4 4 3 5 5 5 9 11 8 11 8 11 11 16 8 10 5 3 2 3 3 6 5 7 14 14 18 22 22 18 15 15 15 13 12 14 12 10 12 11 7 7 6 6 4 4 3 2
21 19 16 12 9 3 4 5 4 7 4 5 6 7 8 7 10 11 14 15 11 7 3 3 4 4 4 4 5 4 13 17 26 27 22 19 17 16 14 13 14 14 13 12 11 8 7 6 6 6 6 6 6 5
22 20 15 12 5 6 5 4 6 5 8 5 11 5 5 9 6 6 7 11 5 5 4 8 8 6 6 5 6 9 16 20 21 15 25 27 22 17 16 15 14 13 12 12 10 8 5 4 3 4 4 5 6 5
21 16 8 4 4 4 5 6 7 7 4 8 6 4 5 3 4 5 7 5 5 6 7 7 9 9 9 7 9 13 15 17 17 10 18 21 24 22 19 17 16 14 12 10 9 6 5 2 3 2 3 2 2 3
17 9 3 3 4 5 4 4 3 3 3 3 4 3 1 2 4 8 3 6 6 9 12 13 10 11 11 12 16 17 17 16 16 13 19 18 16 16 16 16 14 12 13 12 9 6 5 5 4 3 2 2 1 1
4 3 3 4 4 2 4 2 4 4 4 2 2 2 2 4 6 2 3 4 6 7 12 14 14 15 14 16 20 20 20 18 14 18 19 20 20 19 16 15 14 12 10 9 8 6 6 4 3 2 1 2 2 1
1 4 2 3 3 3 3 2 2 3 2 3 3 1 3 4 2 1 2 4 5 8 10 14 16 18 18 20 21 20 20 19 18 21 20 17 18 21 19 16 14 12 10 10 8 6 6 5 3 3 3 3 3 3
4 5 3 1 1 2 3 3 3 4 3 2 1 3 2 2 1 4 3 2 3 5 8 16 20 20 17 16 20 23 22 19 17 17 20 19 15 13 14 16 15 14 12 10 8 8 7 6 6 6 7 7 6 6
3 2 2 2 2 4 4 4 4 3 2 3 3 2 2 2 4 4 2 3 3 6 3 10 14 16 15 15 16 19 19 19 18 15 16 17 14 11 9 12 13 12 10 9 8 7 6 6 6 6 6 6 6 6
2 1 1 0 2 2 3 2 3 3 2 4 8 3 6 6 3 1 1 4 3 5 0 9 12 12 11 13 16 19 20 20 19 18 18 19 18 17 16 16 14 12 10 8 7 6 5 5 5 5 4 4 4 3
2 2 2 3 2 3 3 2 2 2 3 5 3 3 2 2 0 1 2 4 4 4 3 10 15 15 14 15 17 18 19 21 22 23 23 23 22 20 17 15 13 11 10 8 7 5 5 5 5 4 4 3 2 2
2 1 2 2 2 1 1 2 3 3 3 3 2 1 1 1 1 3 5 6 5 3 3 5 12 17 18 19 21 21 19 17 16 14 14 15 15 14 15 15 14 13 11 10 8 7 6 5 5 5 4 3 1 2
2 1 2 2 2 1 1 1 2 4 4 4 6 5 3 2 3 4 6 8 7 6 6 8 12 16 16 19 21 21 20 19 18 17 14 12 13 12 13 13 14 13 11 10 9 8 7 6 6 5 3 2 1 3
2 3 2 2 1 1 3 1 2 1 1 1 1 1 0 2 2 3 8 7 3 4 4 6 9 11 13 13 15 16 12 10 18 18 15 12 11 12 13 13 12 11 11 10 9 9 8 7 6 5 3 2 2 4
2 1 1 1 2 1 3 3 4 4 1 2 3 3 1 2 3 5 8 10 7 3 6 7 8 10 13 13 13 15 16 11 10 17 14 12 10 11 13 12 11 11 11 10 10 9 8 8 6 4 3 2 4 5

GFSWCAN_850_spd_138.txt.gz
Wind_Speed
18 5 14 13 12 16 16 17 14 15 16 23 25 23 22 28 28 31 34 30 27 20 15 12 15 16 23 20 12 21 10 3 5 6 5 4 4 4 6 10 13 8 9 6 7 8 8 10 8 4 5 5 3 2
15 8 14 14 15 18 24 20 18 20 18 24 28 23 19 18 24 35 28 32 35 27 19 27 24 21 15 26 35 10 8 10 5 5 3 3 3 4 9 7 2 6 2 4 6 1 10 8 1 5 3 3 1 2
11 11 20 15 18 20 24 24 18 18 21 22 21 16 19 22 33 33 40 40 47 35 29 21 16 20 18 29 23 10 5 6 5 7 6 3 3 3 5 4 8 4 5 3 6 5 5 5 6 5 4 3 1 2
10 11 21 16 21 22 21 25 20 16 24 24 20 21 25 30 32 34 39 30 29 19 7 17 19 23 16 13 11 13 23 18 18 11 5 3 3 1 3 4 3 2 9 5 2 6 5 5 6 6 4 2 2 1
10 11 22 17 14 23 23 23 20 18 19 19 20 21 22 24 29 29 30 31 25 17 8 17 26 24 21 21 24 23 24 21 15 5 3 3 4 4 4 3 4 6 4 4 2 5 3 3 8 6 4 3 2 1
9 11 24 23 21 21 28 28 24 22 20 19 19 21 20 24 27 29 20 26 29 39 12 5 8 17 19 23 24 22 19 13 9 6 5 5 3 1 3 3 4 6 5 5 5 6 8 10 9 6 5 5 2 2
10 12 26 29 25 24 24 25 29 24 23 21 19 20 18 16 13 14 10 19 25 20 11 5 5 6 12 14 15 16 15 11 7 4 3 4 5 2 2 3 7 8 8 9 10 11 8 7 5 7 6 3 0 3
10 11 22 30 26 24 24 27 28 27 24 23 22 20 16 17 30 30 24 19 20 19 10 4 4 6 6 9 6 7 7 6 7 4 3 4 6 2 2 7 8 9 10 10 8 5 7 9 9 6 4 2 1 3
12 10 20 30 26 25 25 25 28 27 27 26 24 27 26 26 18 21 25 21 16 10 5 3 7 5 5 6 9 5 4 3 2 2 3 5 3 3 4 8 8 9 7 11 11 10 10 9 7 5 2 1 1 2
12 11 13 27 27 26 25 26 27 28 28 26 15 8 7 9 17 15 9 5 6 7 6 4 5 5 9 6 3 4 3 2 2 2 6 2 2 6 6 8 9 9 12 13 13 9 8 6 4 2 2 2 2 2
13 12 11 22 27 26 27 25 26 25 24 7 6 7 16 9 5 5 4 5 3 4 5 5 13 11 4 4 3 2 3 2 2 4 3 3 2 6 10 11 10 10 10 9 7 7 6 6 5 5 4 3 3 3
16 14 12 16 24 25 31 29 25 24 7 5 17 15 5 4 5 5 3 2 4 3 4 9 10 10 5 3 4 3 2 1 3 7 3 2 3 13 14 12 11 10 10 9 8 7 7 7 6 6 5 3 2 2
17 15 15 15 21 30 31 29 25 14 28 21 5 4 4 4 4 3 3 3 4 5 7 14 7 4 4 5 5 2 2 2 9 3 2 1 12 15 15 14 13 11 10 9 9 8 7 6 6 5 5 5 6 5
18 17 15 15 20 28 34 32 33 22 5 4 3 4 4 3 3 3 4 5 6 15 22 17 7 4 4 3 2 3 2 3 4 3 3 4 16 17 15 14 14 12 10 10 9 8 8 8 9 9 9 9 7 7
19 17 16 15 28 32 31 34 27 12 6 5 3 4 3 4 6 6 8 10 13 20 15 12 7 4 2 3 1 3 4 4 3 2 2 12 18 19 17 15 14 12 11 10 10 10 10 11 11 12 12 11 10 9
20 19 15 19 24 26 33 26 21 9 5 5 5 4 5 7 5 5 10 15 15 16 11 5 3 2 2 3 3 3 3 3 2 3 9 17 19 18 18 16 14 13 12 12 13 13 12 12 12 11 10 9 9 8
20 16 15 16 22 22 19 14 7 6 4 3 4 7 4 7 8 7 11 12 15 7 2 3 3 2 3 2 3 3 2 2 5 9 12 16 20 21 20 17 15 14 15 15 15 14 13 12 10 8 7 6 6 5
20 20 16 14 16 22 19 5 5 4 5 5 3 5 3 6 11 8 9 16 8 3 2 2 4 3 3 4 3 3 4 7 8 11 13 17 20 20 18 17 16 16 16 16 14 14 11 9 7 5 7 5 4 3
22 22 21 18 18 7 5 3 4 5 4 4 6 7 5 8 10 11 15 15 9 6 6 2 1 3 3 3 2 6 10 10 13 13 17 20 20 19 18 17 17 18 16 14 15 11 9 10 8 7 7 5 5 5
20 18 20 20 14 4 4 4 4 6 4 4 7 6 5 5 9 11 15 8 6 5 2 2 2 1 1 1 3 4 12 14 21 21 18 19 20 18 18 18 18 18 16 16 15 12 11 10 8 8 7 6 6 5
22 20 16 13 6 4 5 4 5 5 7 5 9 4 4 7 6 6 5 9 2 3 4 5 5 5 4 2 4 7 14 19 20 16 23 22 22 19 20 17 18 16 15 14 13 11 10 8 9 8 7 6 7 6
20 17 13 4 3 4 6 6 7 7 5 8 6 4 5 4 4 5 7 6 4 6 5 5 8 9 7 5 6 10 16 21 18 12 18 23 23 21 19 19 18 16 15 14 12 11 10 9 9 8 7 6 4 4
12 6 3 3 4 4 3 4 3 3 3 4 3 3 2 3 4 7 4 5 5 9 11 11 10 10 10 9 12 15 19 18 17 14 19 21 18 18 18 18 16 16 16 14 12 11 10 10 9 8 6 5 4 4
4 3 3 3 4 4 3 3 4 5 5 3 3 3 4 4 5 3 3 3 5 6 9 12 11 11 11 13 16 19 21 19 16 17 20 21 20 19 19 18 15 14 13 15 14 12 12 10 9 8 6 4 4 4
2 3 2 3 3 4 3 4 3 2 3 3 4 3 3 4 3 3 2 2 2 4 7 10 12 11 9 11 15 19 22 20 18 20 22 20 20 20 18 16 15 15 16 17 15 14 13 11 9 8 7 6 5 4
3 3 2 2 2 1 3 3 3 3 3 3 2 4 3 2 3 3 1 1 2 4 5 8 11 11 11 11 16 21 23 22 19 19 22 22 20 21 22 21 21 20 19 16 15 14 13 12 10 9 9 8 8 6
3 3 2 3 3 4 4 4 4 3 2 3 4 5 4 3 4 1 0 2 1 5 6 5 9 9 9 13 15 19 21 22 20 18 19 20 19 17 14 16 17 15 18 17 15 14 13 12 11 11 11 10 10 9
3 2 1 1 3 2 2 2 3 2 3 4 8 4 4 3 2 2 1 2 2 5 3 4 10 12 11 11 12 16 21 21 20 18 18 20 20 18 17 17 16 15 16 16 14 13 12 12 11 11 11 11 9 8
2 2 2 2 2 3 3 2 2 2 3 3 1 2 2 3 3 2 1 2 2 3 2 3 9 12 12 12 13 15 18 21 23 23 24 22 24 22 20 19 18 17 16 14 13 12 12 11 11 11 11 10 9 8
2 2 2 2 1 2 2 2 2 3 3 3 3 3 3 3 2 1 3 4 3 2 3 4 7 11 12 13 15 17 18 19 20 19 21 20 21 21 21 19 17 16 15 14 13 13 11 10 10 11 10 9 8 6
2 2 2 3 2 1 1 1 0 0 1 1 2 2 3 4 1 4 6 5 4 3 3 3 6 10 11 12 14 17 19 18 17 16 14 12 14 16 18 18 18 17 16 15 13 12 11 12 12 11 10 9 7 6
2 2 1 2 2 1 1 1 1 1 1 1 1 2 2 3 2 4 9 8 4 1 2 3 4 6 10 12 13 15 13 12 15 16 16 13 11 13 14 16 16 17 17 15 14 14 13 12 12 11 9 8 6 5
2 2 2 2 2 2 2 1 2 1 2 2 2 2 2 2 3 4 8 10 8 5 1 3 4 7 7 10 11 12 15 9 8 15 15 13 11 11 13 15 16 16 15 15 15 14 13 12 11 10 9 7 6 5

GFSWCAN_850_spd_141.txt.gz
Wind_Speed
22 24 3 8 10 6 4 1 2 4 17 19 23 27 29 34 36 36 30 26 29 14 13 28 37 30 30 24 14 31 15 11 10 9 7 6 6 12 9 13 14 10 10 8 11 10 11 14 10 5 6 7 6 4
21 11 7 9 12 9 6 9 6 18 22 21 21 29 29 25 27 30 31 27 39 27 18 27 23 19 10 24 34 31 14 19 11 8 6 6 6 5 12 8 14 7 5 7 6 4 12 15 7 7 5 4 5 2
16 4 11 11 18 12 12 15 21 24 19 21 19 18 26 32 28 33 42 41 52 38 23 20 21 15 16 23 38 21 18 8 5 11 6 3 4 7 7 5 11 3 7 4 6 8 11 9 8 6 6 5 5 3
13 10 11 18 19 14 16 15 20 21 18 22 23 25 28 30 43 43 36 23 34 19 8 12 15 16 18 29 26 16 19 16 16 16 6 3 3 3 4 6 8 4 9 6 5 9 9 8 6 7 7 5 5 3
11 13 16 18 19 17 16 13 28 22 23 29 29 30 39 38 38 34 32 29 14 15 9 27 31 20 18 19 17 17 21 24 18 6 5 5 5 5 5 4 4 8 4 6 3 12 3 12 9 7 7 5 3 1
9 20 15 17 20 20 16 15 18 18 20 28 29 29 35 36 33 32 21 29 32 26 17 5 12 22 22 24 25 22 18 14 14 7 7 6 3 2 6 4 6 10 8 5 6 7 9 11 9 6 8 6 4 2
9 20 16 18 21 22 19 18 16 14 10 15 20 19 24 26 21 10 10 16 21 19 12 5 4 9 15 21 21 19 15 12 12 9 4 7 8 3 2 4 12 13 12 14 15 16 11 10 7 8 7 5 4 2
10 26 20 20 22 24 21 21 18 16 16 17 18 20 33 31 31 28 23 20 16 14 10 4 4 7 6 10 6 7 8 7 7 5 5 6 7 2 3 13 16 15 15 13 8 4 9 10 10 7 5 3 1 2
9 28 24 22 21 25 28 24 23 25 26 24 22 21 22 22 12 12 25 26 19 12 5 3 6 5 6 10 14 7 5 3 3 3 3 6 3 2 14 15 14 13 9 11 10 10 10 8 8 6 3 0 0 1
10 27 24 21 21 25 26 27 25 23 23 24 18 13 7 9 19 18 11 7 9 8 8 3 11 6 13 8 3 4 2 3 3 3 7 2 6 10 8 12 13 10 14 13 11 10 10 8 6 4 3 3 3 2
9 25 28 23 23 26 25 25 25 23 10 5 6 6 11 13 6 4 5 5 3 4 5 4 17 11 8 5 4 2 3 2 3 4 3 4 4 8 11 12 13 13 12 9 8 9 6 6 6 5 5 5 5 4
9 18 25 26 25 25 24 23 20 10 4 8 16 14 6 4 4 4 3 2 3 4 5 10 15 12 6 3 4 2 3 1 4 6 2 5 4 15 15 14 13 13 13 12 10 11 10 9 8 8 7 5 3 3
9 13 20 26 24 21 22 19 12 23 21 11 5 4 2 4 3 2 4 3 4 7 10 17 9 6 5 5 5 2 2 4 11 2 4 4 16 17 16 15 14 14 13 13 13 12 11 10 9 6 5 5 5 6
13 13 17 25 22 24 21 17 18 11 5 3 2 4 4 4 5 5 8 8 9 18 21 19 8 4 4 3 2 4 3 3 3 4 4 7 18 18 17 16 17 15 14 14 13 11 9 8 8 8 7 7 7 6
16 16 19 26 24 25 22 20 11 5 5 6 5 5 5 7 9 7 11 19 22 21 20 13 8 8 3 3 2 4 3 3 4 3 4 17 20 20 19 18 17 16 15 13 11 11 11 10 10 10 10 9 7 7
21 22 19 23 22 25 26 17 6 8 5 5 7 5 8 10 9 13 16 17 17 15 10 7 3 3 3 4 2 2 5 3 3 5 15 20 21 21 20 18 16 16 14 14 13 13 12 12 11 11 11 9 8 7
18 21 18 17 20 25 23 12 6 7 6 5 5 9 9 13 11 10 13 12 12 7 2 3 3 2 2 2 3 2 1 5 10 13 16 19 23 22 20 19 18 17 16 15 15 14 13 12 11 9 8 7 6 5
21 19 15 19 21 21 16 8 5 6 6 6 4 6 7 8 11 8 9 10 7 4 2 3 3 3 3 4 3 4 6 9 11 13 17 20 21 20 19 19 18 17 17 16 15 14 13 12 9 7 7 7 5 3
20 19 17 19 17 10 4 5 5 4 6 5 6 6 7 7 9 8 12 7 7 5 4 2 2 1 2 4 7 8 12 10 15 15 18 18 19 20 19 18 18 17 17 16 15 12 10 10 6 7 7 6 4 4
20 18 20 17 10 5 4 4 4 5 3 4 4 6 6 5 5 9 7 4 4 2 3 2 2 4 4 4 3 5 12 16 20 20 17 16 18 19 18 18 16 16 15 14 13 12 10 9 8 8 7 7 7 6
19 16 16 12 7 6 5 3 5 4 6 5 7 5 5 6 5 5 4 2 2 1 1 1 3 2 0 2 3 7 13 15 15 13 21 21 19 16 17 15 16 15 14 14 13 12 11 9 9 9 9 7 8 7
18 16 12 4 3 4 5 5 7 6 4 8 6 4 6 4 4 4 4 3 3 3 2 2 3 3 2 2 4 8 13 17 15 14 17 20 21 19 19 18 17 16 14 14 13 12 11 10 10 9 9 9 9 7
13 6 3 3 3 4 5 3 3 3 4 5 6 4 3 3 3 5 3 3 3 8 8 7 7 7 7 6 8 10 17 17 14 14 16 17 16 17 17 17 16 16 15 14 13 13 12 12 12 11 9 8 7 7
4 3 3 3 4 4 3 2 3 5 5 3 3 4 3 3 5 4 3 3 2 4 3 7 7 5 6 8 8 12 19 13 12 13 16 17 17 17 16 16 15 15 14 15 15 14 14 13 12 11 9 9 8 7
2 5 3 4 2 3 3 4 2 3 3 3 4 3 3 5 3 3 2 2 1 1 2 3 6 7 6 7 9 11 18 14 13 15 17 16 16 17 16 15 15 15 16 17 16 15 14 13 12 11 10 9 8 8
2 3 2 1 2 2 3 3 3 4 4 3 2 4 4 3 4 2 2 3 3 3 1 2 5 6 7 8 10 11 18 15 13 14 15 17 17 18 19 19 18 17 17 17 16 16 15 13 12 12 11 10 11 9
2 2 2 2 2 4 4 4 5 3 3 4 4 6 5 4 3 3 4 5 3 4 5 2 4 5 5 8 10 11 13 13 13 12 15 15 14 14 16 17 17 15 17 17 16 15 14 14 13 12 10 9 10 10
2 1 0 3 2 1 2 3 3 3 3 4 7 4 4 0 3 3 3 2 3 5 5 2 7 7 8 9 13 13 17 20 20 18 16 18 19 18 16 16 16 16 14 16 16 15 14 13 12 12 11 11 11 10
1 1 0 2 2 3 4 3 3 3 1 1 1 3 3 4 3 3 0 3 3 4 4 3 2 3 6 7 8 10 12 17 19 19 17 15 17 17 18 17 16 16 16 17 17 15 15 13 11 11 11 11 11 10
2 3 2 2 2 3 3 3 3 3 4 4 4 4 5 4 3 2 1 1 2 2 3 1 3 3 4 5 7 9 12 14 13 14 15 15 15 17 18 17 17 17 16 17 16 16 14 13 13 13 12 11 10 10
2 1 2 3 3 3 2 3 4 4 3 3 4 5 7 5 2 5 6 5 4 4 2 3 2 3 3 5 5 7 11 15 16 15 15 14 16 14 14 18 17 17 17 17 16 14 13 13 13 13 12 11 10 9
2 2 1 2 3 2 2 2 2 2 2 2 2 3 3 4 3 3 9 7 6 4 1 2 3 1 6 7 8 9 9 9 14 14 13 11 10 12 14 17 17 17 17 16 14 14 13 13 12 11 11 11 10 9
2 2 2 2 3 2 1 2 2 2 2 2 2 2 2 4 4 2 6 9 6 6 3 1 2 4 5 7 7 7 8 7 9 11 10 10 8 8 11 13 15 17 16 15 15 14 14 13 12 11 10 10 9 8

GFSWCAN_850_spd_144.txt.gz
Wind_Speed
27 31 31 18 8 7 6 8 6 10 10 17 20 4 6 8 38 93 72 70 65 41 20 41 36 34 37 33 10 19 16 6 6 6 6 5 5 10 7 12 14 9 9 9 9 9 12 19 9 2 9 13 13 7
28 28 23 2 4 2 1 1 8 12 9 6 6 12 15 34 44 54 48 62 56 27 12 20 14 33 39 38 25 36 6 18 10 6 5 4 6 6 9 8 14 8 7 6 8 4 14 15 18 13 9 13 10 7
26 24 4 10 6 2 1 14 15 9 7 4 9 12 29 31 35 45 47 49 47 22 18 18 12 20 20 20 39 18 12 11 10 8 2 2 4 1 4 4 9 7 18 5 6 8 13 16 15 12 10 12 10 7
22 13 5 11 7 6 17 17 13 12 11 14 15 17 20 24 47 45 45 40 34 18 4 5 16 21 27 26 23 21 27 16 20 11 4 3 3 4 3 5 7 5 6 8 7 14 16 13 12 12 11 11 10 8
16 5 14 12 9 8 22 17 20 18 19 19 27 36 35 37 40 43 34 25 31 16 5 12 24 22 31 27 20 29 20 20 18 7 3 3 5 5 5 5 2 5 3 5 3 16 4 15 14 12 11 8 5 4
8 11 15 13 11 19 19 15 18 16 27 28 32 37 47 46 45 46 28 28 39 40 19 5 13 26 28 24 17 21 23 17 7 5 5 4 3 2 2 3 9 15 15 13 11 15 21 19 14 14 15 9 5 5
6 14 15 14 13 15 12 12 14 18 16 18 24 22 23 18 15 11 12 23 31 33 16 5 4 13 28 24 21 20 22 17 16 9 4 6 5 3 1 4 16 14 17 20 20 23 16 13 14 11 11 9 9 6
13 15 14 15 16 16 14 11 16 26 29 27 19 25 25 33 36 34 28 25 22 18 11 4 5 6 14 17 12 15 17 11 7 3 7 7 4 1 4 17 19 18 19 18 13 10 16 16 13 11 8 7 4 3
21 16 17 20 21 18 18 17 20 23 32 31 32 28 26 21 19 20 28 25 21 13 4 4 7 6 12 17 19 8 7 3 4 2 5 7 2 3 17 20 20 19 16 17 15 16 16 13 11 10 7 4 5 5
21 18 17 17 20 14 18 21 19 19 16 15 17 16 7 7 20 22 13 7 9 10 9 4 9 7 15 9 4 4 3 3 3 3 6 4 4 12 16 17 17 16 18 16 16 15 14 13 11 8 8 7 7 7
23 20 17 21 21 20 18 14 14 14 10 11 6 6 12 13 6 7 5 5 3 4 5 11 18 10 10 6 4 3 3 2 3 3 4 3 4 6 15 17 15 17 15 11 11 12 12 11 11 10 9 9 9 7
25 19 16 20 20 19 18 14 7 7 14 11 19 19 8 6 6 5 3 3 4 3 5 9 15 14 10 5 3 3 2 1 4 6 2 5 5 17 16 16 15 16 16 15 14 15 15 13 12 13 11 8 6 5
21 21 22 20 20 19 16 9 15 22 20 9 4 4 3 4 3 3 4 3 4 5 9 16 8 5 5 6 4 2 2 3 8 2 3 3 17 20 18 17 16 16 17 17 17 16 15 14 12 9 7 8 8 7
18 22 23 20 17 17 13 14 13 12 8 5 4 5 5 4 5 4 9 8 10 18 21 15 6 4 4 3 1 4 2 2 4 4 3 7 22 22 20 19 19 18 18 18 15 13 13 11 11 10 9 9 8 8
16 20 23 17 16 15 10 10 8 7 6 6 6 5 6 5 7 8 19 25 22 22 16 11 8 8 3 3 2 4 4 3 3 2 5 21 24 22 22 22 23 22 18 15 13 13 13 12 12 12 11 9 9 9
20 25 17 14 14 10 12 7 10 7 5 6 8 8 11 7 9 17 17 19 17 11 11 7 4 3 2 3 2 2 5 2 3 4 21 25 23 23 24 21 21 19 16 15 14 14 13 12 12 12 12 10 9 8
18 15 13 14 13 12 7 6 8 8 7 6 5 13 17 10 10 10 13 13 9 8 2 3 3 4 0 2 3 3 4 4 13 17 19 21 25 25 23 20 19 19 16 16 16 15 14 13 12 12 11 10 8 7
22 14 13 12 17 14 10 10 6 8 9 10 6 9 15 11 10 10 10 8 8 8 8 3 3 2 2 2 3 4 7 15 15 18 21 23 23 23 22 21 20 18 17 17 16 15 13 14 11 8 6 7 5 6
19 19 17 20 18 8 5 6 6 6 8 6 9 11 12 10 11 8 9 13 11 9 4 3 2 3 4 7 7 13 13 14 17 18 20 21 22 22 20 20 19 18 17 17 16 13 13 13 7 7 6 8 5 4
18 20 16 11 10 5 5 5 5 6 4 4 6 8 6 6 9 9 5 7 7 5 4 3 4 4 5 5 7 10 13 18 24 24 22 20 20 21 20 20 18 18 17 16 14 12 12 11 10 9 7 7 8 6
18 16 12 10 8 9 5 4 6 5 5 5 5 5 5 6 5 4 4 4 6 4 3 6 7 6 6 8 9 12 15 19 20 17 25 26 22 19 20 17 17 17 17 17 16 14 13 12 11 11 13 10 9 8
12 11 6 8 7 6 6 7 7 5 4 7 5 4 5 4 3 2 3 2 2 4 3 5 4 3 3 6 9 10 16 13 12 13 17 22 24 22 21 20 20 19 17 17 16 15 14 13 13 12 12 13 12 10
12 6 4 4 5 4 3 2 3 3 3 5 7 5 2 2 3 3 2 0 3 2 4 5 5 7 5 3 7 9 17 14 15 17 19 19 17 17 20 19 20 19 18 17 16 15 15 15 15 13 12 11 10 9
10 2 3 3 4 4 4 1 4 4 4 3 3 4 3 3 5 2 1 3 3 1 1 3 4 3 3 5 7 12 18 12 14 16 18 19 19 19 19 19 19 18 16 17 17 16 18 17 14 14 13 10 9 8
2 2 2 4 3 4 4 4 2 3 3 2 3 3 3 4 2 3 1 4 6 3 1 1 3 4 3 5 8 9 19 14 15 16 18 18 18 18 17 17 17 17 18 20 20 19 19 16 15 14 12 11 11 10
4 5 4 2 1 2 3 3 4 4 5 3 2 5 3 3 4 2 2 6 7 4 2 1 1 2 5 5 11 12 17 16 13 15 18 18 19 19 21 21 20 19 20 21 20 20 17 16 15 15 13 12 12 11
3 3 3 3 2 4 3 3 5 3 3 4 4 5 4 5 4 4 6 6 4 3 3 1 3 4 3 7 7 10 9 17 15 14 12 17 16 16 18 19 19 19 20 20 20 19 17 17 15 16 14 13 14 14
3 3 1 3 2 1 2 3 4 3 3 4 8 4 3 3 3 3 4 2 3 5 5 3 6 6 5 6 9 11 12 16 15 18 19 19 18 17 18 19 18 19 16 17 20 18 17 17 16 16 15 13 13 13
3 3 2 2 2 3 4 4 3 3 1 3 1 3 4 5 4 4 3 5 6 5 3 5 5 3 5 6 6 10 12 16 19 20 19 17 19 18 20 20 19 18 16 17 19 18 17 15 14 14 14 15 18 17
3 3 2 2 3 3 3 4 4 4 6 7 5 6 7 7 4 4 4 3 4 5 5 2 1 4 2 1 2 4 5 10 11 12 14 14 15 17 19 18 18 19 17 19 22 23 21 21 18 17 17 17 17 14
2 1 0 3 4 4 3 5 6 7 5 5 8 9 8 7 4 7 6 6 4 1 6 7 6 2 3 1 2 3 6 10 15 13 11 12 14 11 9 13 17 17 16 17 17 18 18 17 16 16 16 14 12 10
2 3 3 2 4 2 4 1 2 2 2 3 3 3 5 5 4 4 10 7 6 5 3 3 3 2 6 6 3 4 7 6 5 11 11 9 10 10 9 11 14 15 15 15 14 13 13 13 13 12 12 11 11 10
1 1 1 4 5 4 1 2 2 3 2 3 3 4 5 5 5 2 6 8 7 7 5 2 1 0 2 4 4 3 4 5 5 9 9 8 6 6 9 12 13 14 15 15 13 12 13 13 12 12 11 12 11 11

GFSWCAN_850_spd_147.txt.gz
Wind_Speed
23 26 32 39 36 22 11 16 19 21 21 22 26 29 32 37 46 52 46 58 58 29 15 45 34 37 23 28 10 9 6 1 3 6 7 4 4 5 3 6 11 11 9 5 3 5 8 11 6 3 12 17 20 18
24 29 35 31 17 8 11 14 11 9 14 19 25 30 34 41 51 59 46 53 57 28 13 25 42 36 47 36 31 19 6 7 9 3 3 4 3 3 6 3 5 3 6 5 7 4 2 9 18 26 23 21 20 20
25 32 28 18 5 9 10 5 11 13 13 14 16 18 24 25 45 69 68 58 54 33 17 18 26 28 34 32 39 15 12 14 10 7 3 0 5 2 3 2 4 4 8 3 3 6 16 18 23 27 26 22 18 13
27 25 18 5 4 4 5 10 11 6 5 5 8 6 6 6 10 60 63 64 56 19 3 11 19 11 18 29 33 34 28 18 13 14 5 2 3 3 1 2 3 4 11 8 3 14 21 22 27 30 27 23 22 19
25 18 3 7 4 9 11 14 9 10 11 14 14 16 26 25 42 48 47 61 56 16 5 3 22 15 22 25 26 24 32 29 19 4 3 2 4 3 4 3 2 2 6 4 4 17 16 21 25 25 25 21 17 13
18 3 10 6 11 12 10 16 12 11 25 29 24 33 38 47 50 52 30 43 46 20 11 3 9 22 27 31 31 24 17 17 8 5 3 6 7 6 3 2 1 13 22 23 10 31 34 31 27 21 21 16 13 11
5 11 11 11 14 14 15 11 14 14 18 17 30 24 17 24 32 15 9 30 39 32 6 3 3 8 22 26 17 25 15 15 13 9 3 4 3 6 3 3 11 21 32 37 37 38 27 22 22 17 14 17 14 14
9 12 11 11 14 17 15 17 9 9 18 28 35 27 28 35 43 35 34 27 24 14 8 3 3 4 6 5 6 12 12 8 5 4 5 3 3 4 4 19 23 24 27 23 17 20 27 24 18 19 19 17 16 14
14 13 13 15 18 16 11 15 16 14 20 14 22 29 31 26 20 30 33 28 18 8 5 3 3 4 8 18 17 7 6 3 5 3 2 4 2 2 14 22 24 23 14 23 23 26 23 19 20 17 14 12 15 14
18 17 20 16 17 13 12 11 14 14 19 15 18 10 8 11 23 21 14 9 10 12 9 2 9 5 12 5 4 5 5 2 2 2 6 3 3 19 24 25 24 29 23 24 30 24 23 22 20 19 16 14 13 10
16 14 22 18 14 14 12 9 10 9 10 7 6 11 16 9 6 7 5 4 3 3 6 8 17 8 10 5 2 4 2 2 3 3 3 2 1 4 28 31 28 24 20 20 21 23 23 21 21 19 15 13 11 8
15 15 21 21 14 12 9 5 0 10 5 7 6 8 5 4 4 6 1 2 4 3 3 5 10 11 8 6 4 4 2 1 3 6 3 3 3 20 30 29 27 24 26 26 24 25 21 18 16 13 13 11 9 8
15 16 21 20 15 13 8 10 17 22 18 12 6 5 7 6 8 4 3 2 3 4 8 13 4 5 5 6 4 3 4 0 3 3 2 2 19 28 30 29 26 23 23 24 24 23 20 19 14 11 13 12 11 11
19 18 19 25 18 9 12 16 15 9 5 4 4 6 3 4 3 2 6 5 9 18 23 17 7 4 4 3 2 4 1 3 2 3 3 6 24 30 26 24 25 24 21 20 20 19 18 16 16 14 12 12 11 13
19 20 18 13 9 7 9 7 6 7 6 6 6 4 3 2 5 18 24 27 27 25 23 13 8 6 2 3 2 3 2 3 4 2 4 21 30 26 25 25 25 22 20 18 18 19 19 18 17 17 14 13 13 14
20 17 13 10 8 5 6 11 13 10 6 6 9 3 5 11 10 18 18 17 15 13 9 9 3 3 2 4 2 3 4 2 2 3 22 31 28 27 27 27 23 21 18 18 19 18 18 17 15 16 16 15 14 13
19 13 9 6 4 5 9 9 8 8 7 5 4 13 13 11 11 13 16 13 8 4 2 3 4 1 1 2 3 4 2 2 13 19 27 28 29 28 27 26 24 21 19 20 20 18 18 17 16 16 17 16 14 13
17 13 12 9 9 9 18 11 7 9 7 10 5 14 17 16 13 16 21 19 11 5 4 2 4 3 3 2 2 2 9 17 19 22 23 24 25 24 24 25 24 21 21 20 19 18 17 18 16 15 14 14 13 11
22 18 12 10 7 6 6 8 8 6 8 5 13 16 13 10 12 12 16 16 14 10 4 4 5 3 3 4 7 13 16 20 22 21 21 20 21 23 23 23 23 21 20 20 19 18 17 14 11 10 12 13 12 10
19 17 15 11 8 6 6 7 7 8 4 5 7 9 7 6 6 8 14 15 13 6 7 4 3 4 5 9 9 14 16 20 23 24 21 20 21 22 22 23 22 21 20 19 16 18 19 13 14 8 9 12 11 9
15 12 9 11 17 10 6 5 7 6 6 5 6 6 6 9 7 8 10 13 10 6 3 7 9 9 10 9 10 12 14 18 21 22 28 27 23 21 22 21 19 20 22 21 19 19 19 17 14 12 12 11 14 10
11 11 11 10 9 6 7 8 7 6 5 6 4 4 4 3 3 6 6 9 6 6 5 9 7 7 10 10 9 10 13 14 15 13 19 22 25 24 25 22 21 22 21 21 19 19 18 18 19 17 16 16 14 12
9 9 8 8 6 6 3 2 3 4 3 3 5 3 3 2 2 3 4 5 4 6 6 6 6 6 4 7 9 13 13 12 15 13 14 22 21 21 22 19 19 20 19 20 18 16 20 20 18 16 15 17 16 14
6 6 6 5 6 2 2 3 4 3 4 1 2 4 3 2 1 2 2 4 4 6 6 4 4 3 3 5 7 16 13 13 13 13 16 22 20 20 19 16 20 19 16 16 18 18 21 20 17 15 15 15 15 13
5 5 3 4 3 3 2 2 1 2 2 1 3 2 2 4 2 1 2 4 10 4 3 3 2 2 1 3 5 12 15 13 15 16 18 19 18 18 17 16 19 18 18 19 21 21 21 20 18 16 16 13 13 12
4 5 4 2 1 3 3 3 3 3 2 3 3 4 5 2 2 2 3 7 7 6 2 1 0 1 4 3 8 8 17 13 13 13 17 19 19 19 21 21 22 21 22 20 21 21 20 19 18 17 17 15 14 13
3 3 4 4 3 3 3 5 7 4 2 4 4 4 3 3 2 3 5 8 5 3 3 2 1 3 4 5 5 8 11 16 15 13 10 16 15 14 14 16 20 19 21 21 21 20 19 18 17 17 17 14 15 14
3 3 2 2 2 2 2 2 3 2 2 4 9 3 3 3 3 3 3 1 4 4 6 4 4 4 4 4 5 9 9 11 13 13 15 15 15 15 13 12 14 15 14 15 17 18 18 16 14 16 17 16 15 13
3 2 2 2 3 5 5 4 3 3 1 4 1 3 4 5 5 4 5 5 5 7 4 4 4 2 4 4 5 6 7 8 11 17 19 19 18 17 17 17 17 16 14 14 13 16 17 14 12 13 14 15 15 14
4 5 2 3 3 3 3 3 4 6 9 8 8 9 10 9 7 5 6 6 6 7 5 3 5 4 4 3 3 1 6 12 11 14 15 15 14 14 15 16 17 17 17 16 16 18 19 16 16 16 17 17 17 16
3 3 1 5 4 3 5 10 11 10 9 10 11 12 10 9 9 8 6 5 3 6 6 7 6 6 6 8 3 1 3 5 11 11 9 10 12 9 8 12 15 17 17 16 16 18 19 20 19 18 17 17 17 16
2 4 5 2 3 5 5 2 3 3 3 4 4 5 7 6 4 5 11 6 5 2 2 4 4 4 4 4 5 2 2 2 2 7 8 7 7 11 10 8 10 14 15 15 16 16 19 20 20 19 18 17 15 14
1 1 3 5 4 4 2 2 3 2 5 4 4 5 5 5 5 2 6 6 7 8 6 1 2 3 5 4 2 1 2 2 3 7 8 7 7 7 7 8 10 11 11 11 10 10 12 15 15 12 11 11 11 11

GFSWCAN_850_spd_150.txt.gz
Wind_Speed
19 21 24 26 29 35 36 33 24 19 20 20 21 24 30 38 47 54 61 52 51 29 30 32 39 35 15 25 13 7 3 5 2 6 4 4 4 6 4 6 8 10 8 4 4 5 10 4 2 5 8 18 26 22
19 22 24 28 36 34 24 17 16 20 20 22 26 29 31 30 33 50 36 64 54 41 15 39 28 52 34 29 28 17 7 5 10 3 3 2 1 2 6 4 2 2 6 6 7 5 1 3 9 19 26 30 21 26
20 23 26 34 29 12 11 16 15 19 24 29 30 31 35 37 38 42 41 38 51 39 23 25 34 40 33 39 31 17 12 11 10 8 5 2 3 3 4 3 4 2 6 3 4 3 8 24 23 23 26 27 22 20
20 24 30 22 8 5 6 10 15 14 17 21 28 33 35 41 46 45 45 46 45 31 8 15 21 26 21 34 37 28 30 17 13 9 3 3 1 1 2 3 4 4 6 6 5 9 18 20 29 29 28 26 24 20
20 26 20 5 5 2 8 10 4 4 5 6 15 19 24 32 40 52 49 51 52 25 9 7 25 32 20 18 28 38 26 25 22 4 2 2 3 3 1 3 1 3 6 6 4 21 9 19 28 29 29 25 21 20
23 17 5 5 7 3 9 10 9 6 9 20 16 19 11 16 29 49 20 46 51 42 7 5 9 11 24 26 21 20 29 25 20 9 2 4 3 4 2 3 3 4 9 21 8 20 22 27 33 27 27 23 20 16
17 5 6 12 8 6 11 13 14 18 21 16 22 29 28 37 37 31 30 54 54 40 7 3 2 8 22 22 15 19 18 16 10 6 3 6 5 6 1 2 5 14 26 32 35 34 23 30 27 25 24 20 16 15
4 8 11 12 10 11 18 12 15 22 27 26 35 35 29 31 32 32 34 58 44 17 5 3 2 3 12 6 5 8 8 8 4 6 6 3 6 4 1 13 20 25 31 29 27 25 34 33 27 25 22 21 18 16
7 9 10 15 11 11 17 10 11 16 24 26 29 30 34 30 22 36 48 39 31 4 3 2 3 3 7 6 10 5 2 3 4 3 3 4 1 2 12 21 22 29 21 28 27 33 31 29 29 28 24 20 17 16
13 12 15 15 11 6 7 11 16 13 18 16 15 14 9 15 30 33 27 10 1 7 3 1 4 3 10 5 3 4 4 2 2 2 5 3 2 17 24 25 26 20 32 36 36 25 31 28 27 25 23 17 12 13
14 16 16 12 9 6 1 4 4 5 12 11 9 7 14 12 8 5 5 3 6 3 2 3 13 10 8 4 3 3 2 2 3 3 3 2 1 1 24 25 22 24 24 24 24 31 29 29 28 23 20 16 14 11
14 17 15 13 10 8 7 5 9 13 12 9 8 8 5 4 4 5 2 2 2 3 3 4 10 8 7 3 4 4 3 2 3 5 3 2 1 20 31 29 27 27 26 25 25 27 26 22 19 18 18 16 12 10
15 20 14 15 9 7 7 10 10 9 5 7 5 4 6 6 7 3 3 2 3 3 7 10 4 4 6 8 5 3 4 1 2 3 2 2 13 24 35 33 31 29 27 27 28 24 22 21 17 13 15 13 13 15
17 19 15 12 9 10 12 12 10 7 5 6 6 6 3 4 3 1 2 4 5 16 23 18 6 4 4 4 2 4 2 2 3 3 5 6 23 31 36 34 35 33 29 28 27 25 22 19 17 15 13 14 16 18
22 20 16 11 12 13 10 7 5 5 6 6 5 4 4 1 6 13 20 22 24 22 19 12 7 6 2 4 2 3 3 1 3 4 5 23 30 39 37 34 31 29 27 25 24 22 20 18 17 18 17 17 17 18
21 14 10 10 8 7 9 10 12 9 5 5 7 5 10 11 11 19 20 18 15 14 11 7 3 3 1 4 2 2 5 4 2 2 22 32 37 36 34 29 24 23 21 21 21 20 19 18 18 19 20 19 17 16
12 9 8 10 11 12 8 10 8 8 7 5 4 17 11 11 13 12 14 9 7 5 2 3 4 1 2 2 2 3 1 1 10 18 26 37 35 33 29 25 22 21 20 21 21 20 19 19 19 20 22 21 19 17
8 9 7 8 5 10 25 12 7 9 7 9 5 12 17 18 15 20 20 14 7 3 2 2 4 4 2 2 2 1 6 16 18 26 29 30 27 26 23 23 21 20 20 21 20 21 20 20 20 20 20 21 20 17
12 8 8 5 4 6 6 8 9 5 10 6 14 14 12 12 19 20 18 13 14 10 4 5 4 2 2 3 5 12 16 18 21 23 22 20 21 23 24 22 21 20 20 20 21 20 19 18 18 20 19 19 17 16
12 8 5 3 7 6 6 7 7 8 6 6 10 15 7 7 13 18 20 18 15 7 7 4 3 3 5 7 9 13 15 19 22 24 21 20 20 21 22 23 22 21 21 21 20 19 21 19 18 16 17 17 17 17
12 13 10 8 16 12 7 5 8 6 5 6 6 8 5 9 10 15 17 15 13 7 3 6 7 8 7 8 9 11 15 18 22 24 29 27 23 23 23 23 23 23 23 24 24 24 24 21 18 15 17 17 14 11
10 8 10 11 8 6 8 9 8 6 5 7 3 3 4 3 5 9 9 12 6 7 5 6 8 9 10 9 8 8 12 14 15 16 22 24 27 25 26 26 25 25 24 23 21 23 22 17 17 16 16 14 15 12
7 9 9 9 6 6 3 2 3 3 3 3 6 3 2 3 4 5 5 5 4 7 7 7 6 5 5 8 9 10 11 13 14 14 20 21 20 20 22 22 21 21 22 21 18 17 20 19 17 16 15 14 15 15
7 6 6 5 6 1 3 3 3 4 4 2 2 2 1 1 3 4 3 3 7 7 6 7 5 3 6 7 10 9 9 9 9 11 11 18 19 20 19 17 16 16 15 16 18 18 20 20 18 18 16 16 18 17
5 7 4 3 2 4 3 3 3 3 2 1 3 2 1 1 2 2 2 4 8 7 4 3 3 1 2 2 5 11 9 9 9 10 10 13 15 14 15 13 13 14 15 17 20 19 21 20 20 19 16 16 17 17
5 6 3 2 1 4 3 2 2 4 3 2 2 4 4 2 4 2 2 3 5 5 3 2 1 1 3 1 5 5 12 9 9 10 9 13 15 14 16 18 19 19 19 18 18 19 19 19 19 19 17 16 15 14
3 2 3 4 2 3 3 4 5 5 3 3 3 4 3 3 2 2 3 5 5 4 3 1 1 1 2 3 4 6 6 12 12 10 7 9 12 13 12 12 14 14 18 19 18 17 16 17 17 17 17 16 17 17
3 3 3 3 5 6 3 2 2 2 1 4 8 2 3 3 1 2 3 1 2 2 4 2 2 2 1 1 2 5 6 7 10 11 12 12 12 11 10 8 7 10 14 16 15 15 15 15 15 15 16 17 17 16
4 3 2 4 3 5 4 2 1 2 2 2 3 2 3 4 4 4 4 5 4 7 3 5 2 2 3 3 3 4 5 5 5 11 16 18 16 15 13 11 10 11 12 12 12 10 10 12 13 11 11 15 15 13
4 4 1 3 3 1 3 3 4 6 5 7 10 10 11 11 9 6 5 5 5 4 4 3 2 3 3 3 2 1 7 7 8 10 17 17 14 11 12 12 12 13 13 13 14 13 13 14 13 13 14 15 16 16
4 4 3 4 3 2 6 11 10 10 7 9 10 13 11 9 8 7 6 4 3 4 4 4 4 4 3 3 2 3 1 3 7 7 7 8 10 8 6 8 11 12 13 13 13 13 13 14 15 16 15 14 14 13
3 4 2 2 2 7 5 2 3 3 4 4 5 6 7 5 4 4 9 6 3 0 3 4 3 3 3 3 3 2 0 1 3 3 7 8 6 6 7 6 6 8 10 11 11 12 14 14 14 16 15 14 14 13
1 2 3 5 3 3 3 3 3 4 5 4 4 4 4 4 4 3 5 7 7 6 3 1 4 5 4 4 2 2 3 2 1 2 1 3 4 6 7 6 6 7 9 9 10 11 12 14 15 15 14 13 13 12